CW0238 Weather Reports


Display with metric or nautical units.
time (UTC)temp
F
wind
direction
speed
MPH
gust
MPH
rain 1hr
in
rain 24hr
in
rain mn
in
humidity
%
barometer
mb
20211205141837 45 48 1.0 5.0 0.00 0.00 0.00 63 1018.8
20211205141739 45 48 1.0 5.0 0.00 0.00 0.00 64 1018.7
20211205141637 45 48 1.0 5.0 0.00 0.00 0.00 64 1018.7
20211205141536 45 48 2.0 6.0 0.00 0.00 0.00 64 1018.6
20211205141436 45 142 1.0 6.0 0.00 0.00 0.00 64 1018.6
20211205141331 45 142 2.0 6.0 0.00 0.00 0.00 64 1018.5
20211205141230 45 144 2.0 6.0 0.00 0.00 0.00 64 1018.5
20211205141136 45 32 2.0 6.0 0.00 0.00 0.00 64 1018.4
20211205141115 44 32 2.0 6.0 0.00 0.00 0.00 64 1018.5
20211205141029 44 32 2.0 6.0 0.00 0.00 0.00 64 1018.5
20211205140930 44 207 2.0 6.0 0.00 0.00 0.00 64 1018.4
20211205140824 44 207 2.0 6.0 0.00 0.00 0.00 65 1018.4
20211205140721 44 146 2.0 6.0 0.00 0.00 0.00 64 1018.4
20211205140625 44 160 2.0 6.0 0.00 0.00 0.00 65 1018.4
20211205140522 44 176 1.0 5.0 0.00 0.00 0.00 64 1018.5
20211205140424 44 176 1.0 5.0 0.00 0.00 0.00 64 1018.4
20211205140317 44 209 1.0 3.0 0.00 0.00 0.00 65 1018.4
20211205140217 44 148 1.0 3.0 0.00 0.00 0.00 65 1018.4
20211205140116 44 148 1.0 3.0 0.00 0.00 0.00 65 1018.4
20211205140016 44 148 1.0 3.0 0.00 0.00 0.00 66 1018.5
20211205135918 44 148 1.0 3.0 0.00 0.00 0.00 66 1018.5
20211205135813 44 148 1.0 3.0 0.00 0.00 0.00 66 1018.6
20211205135710 44 148 1.0 3.0 0.00 0.00 0.00 66 1018.7
20211205135611 44 148 1.0 3.0 0.00 0.00 0.00 66 1018.8
20211205135510 44 148 1.0 3.0 0.00 0.00 0.00 65 1019.0
20211205135412 44 148 1.0 3.0 0.00 0.00 0.00 67 1019.0
20211205135307 44 189 1.0 2.0 0.00 0.00 0.00 66 1019.0
20211205135205 44 189 1.0 2.0 0.00 0.00 0.00 66 1019.0
20211205135106 44 189 1.0 2.0 0.00 0.00 0.00 66 1019.1
20211205135005 44 189 1.0 2.0 0.00 0.00 0.00 66 1019.1
20211205134905 44 189 0.0 2.0 0.00 0.00 0.00 66 1019.2
20211205134759 44 189 0.0 2.0 0.00 0.00 0.00 66 1019.2
20211205134658 44 189 0.0 2.0 0.00 0.00 0.00 66 1019.3
20211205134557 44 189 0.0 2.0 0.00 0.00 0.00 66 1019.3
20211205134458 44 189 0.0 2.0 0.00 0.00 0.00 66 1019.3
20211205134400 44 189 0.0 2.0 0.00 0.00 0.00 66 1019.3
20211205134258 44 189 0.0 1.0 0.00 0.00 0.00 66 1019.2
20211205134156 44 190 0.0 1.0 0.00 0.00 0.00 66 1019.2
20211205134116 44 190 0.0 2.0 0.00 0.00 0.00 66 1019.3
20211205134057 44 190 0.0 2.0 0.00 0.00 0.00 66 1019.3
20211205133954 44 190 0.0 2.0 0.00 0.00 0.00 66 1019.3
20211205133854 44 190 0.0 2.0 0.00 0.00 0.00 66 1019.2
20211205133747 44 190 0.0 2.0 0.00 0.00 0.00 66 1019.2
20211205133646 44 190 0.0 2.0 0.00 0.00 0.00 66 1019.2
20211205133547 44 190 0.0 2.0 0.00 0.00 0.00 66 1019.2
20211205133447 44 190 0.0 2.0 0.00 0.00 0.00 66 1019.2
20211205133348 44 190 0.0 2.0 0.00 0.00 0.00 66 1019.2
20211205133239 44 190 1.0 2.0 0.00 0.00 0.00 66 1019.2
20211205133139 44 190 1.0 2.0 0.00 0.00 0.00 66 1019.3
20211205133117 44 190 1.0 2.0 0.00 0.00 0.00 66 1019.4
20211205133042 44 190 1.0 2.0 0.00 0.00 0.00 67 1019.4
20211205132941 44 190 1.0 2.0 0.00 0.00 0.00 67 1019.4
20211205132841 44 89 1.0 2.0 0.00 0.00 0.00 66 1019.4
20211205132742 44 89 0.0 2.0 0.00 0.00 0.00 66 1019.5
20211205132639 44 89 0.0 2.0 0.00 0.00 0.00 66 1019.5
20211205132537 44 89 0.0 2.0 0.00 0.00 0.00 66 1019.5
20211205132436 44 89 0.0 2.0 0.00 0.00 0.00 66 1019.5
20211205132339 44 89 1.0 2.0 0.00 0.00 0.00 67 1019.5
20211205132230 44 89 1.0 2.0 0.00 0.00 0.00 67 1019.6
20211205132128 43 89 1.0 2.0 0.00 0.00 0.00 67 1019.6
20211205132115 43 89 0.0 2.0 0.00 0.00 0.00 67 1019.6
20211205132028 43 89 0.0 2.0 0.00 0.00 0.00 68 1019.6
20211205131928 43 89 0.0 2.0 0.00 0.00 0.00 68 1019.6
20211205131830 43 89 0.0 2.0 0.00 0.00 0.00 68 1019.6
20211205131724 44 89 0.0 2.0 0.00 0.00 0.00 67 1019.7
20211205131622 43 89 1.0 2.0 0.00 0.00 0.00 67 1019.7
20211205131525 43 89 1.0 3.0 0.00 0.00 0.00 67 1019.8
20211205131422 43 89 1.0 3.0 0.00 0.00 0.00 67 1019.8
20211205131324 43 89 1.0 3.0 0.00 0.00 0.00 67 1019.8
20211205131215 43 88 1.0 3.0 0.00 0.00 0.00 67 1019.9
20211205131121 43 350 1.0 3.0 0.00 0.00 0.00 67 1019.9
20211205131117 43 350 1.0 3.0 0.00 0.00 0.00 66 1019.9
20211205131016 43 350 1.0 3.0 0.00 0.00 0.00 66 1020.0
20211205130917 43 350 1.0 3.0 0.00 0.00 0.00 66 1020.0
20211205130817 43 350 1.0 3.0 0.00 0.00 0.00 65 1020.0
20211205130713 43 350 1.0 3.0 0.00 0.00 0.00 65 1020.0
20211205130611 43 353 1.0 3.0 0.00 0.00 0.00 65 1020.0
20211205130510 43 353 1.0 2.0 0.00 0.00 0.00 66 1020.0
20211205130410 43 67 1.0 2.0 0.00 0.00 0.00 65 1020.0
20211205130311 43 68 1.0 2.0 0.00 0.00 0.00 65 1019.9
20211205130208 43 68 1.0 2.0 0.00 0.00 0.00 65 1019.9
20211205130107 43 69 1.0 2.0 0.00 0.00 0.00 65 1019.8
20211205130008 43 69 1.0 2.0 0.00 0.00 0.00 65 1019.7
20211205125906 43 69 1.0 2.0 0.00 0.00 0.00 65 1019.7
20211205125805 43 69 1.0 2.0 0.00 0.00 0.00 65 1019.6
20211205125702 43 69 1.0 2.0 0.00 0.00 0.00 65 1019.7
20211205125558 43 69 1.0 2.0 0.00 0.00 0.00 65 1019.7
20211205125458 43 69 1.0 2.0 0.00 0.00 0.00 64 1019.6
20211205125359 43 69 1.0 2.0 0.00 0.00 0.00 64 1019.6
20211205125258 43 246 1.0 2.0 0.00 0.00 0.00 64 1019.7
20211205125153 43 246 1.0 3.0 0.00 0.00 0.00 64 1019.6
20211205125115 43 246 1.0 3.0 0.00 0.00 0.00 65 1019.6
20211205125052 43 246 1.0 3.0 0.00 0.00 0.00 65 1019.6
20211205124953 43 156 1.0 3.0 0.00 0.00 0.00 64 1019.6
20211205124853 43 154 1.0 3.0 0.00 0.00 0.00 65 1019.4
20211205124753 43 154 1.0 3.0 0.00 0.00 0.00 65 1019.4
20211205124648 43 154 1.0 3.0 0.00 0.00 0.00 66 1019.4
20211205124546 43 271 1.0 3.0 0.00 0.00 0.00 67 1019.3
20211205124447 43 271 1.0 3.0 0.00 0.00 0.00 67 1019.4
20211205124345 43 271 1.0 3.0 0.00 0.00 0.00 66 1019.4
20211205124247 43 271 1.0 3.0 0.00 0.00 0.00 67 1019.3
20211205124140 43 166 1.0 4.0 0.00 0.00 0.00 68 1019.4
20211205124115 43 27 1.0 4.0 0.00 0.00 0.00 68 1019.4
20211205124040 43 100 1.0 4.0 0.00 0.00 0.00 68 1019.4
20211205123941 43 100 1.0 4.0 0.00 0.00 0.00 68 1019.4
20211205123840 43 100 1.0 4.0 0.00 0.00 0.00 68 1019.5
20211205123740 43 100 1.0 4.0 0.00 0.00 0.00 68 1019.6
20211205123636 43 100 1.0 4.0 0.00 0.00 0.00 68 1019.6
20211205123534 43 100 1.0 4.0 0.00 0.00 0.00 68 1019.7
20211205123434 43 100 1.0 4.0 0.00 0.00 0.00 67 1019.7
20211205123333 43 100 1.0 4.0 0.00 0.00 0.00 68 1019.8
20211205123234 43 113 0.0 4.0 0.00 0.00 0.00 67 1019.8
20211205123115 43 113 0.0 2.0 0.00 0.00 0.00 67 1019.9
20211205123032 43 113 0.0 1.0 0.00 0.00 0.00 67 1019.9
20211205122932 43 113 0.0 2.0 0.00 0.00 0.00 67 1020.0
20211205122830 43 113 0.0 2.0 0.00 0.00 0.00 67 1020.0
20211205122729 43 113 0.0 2.0 0.00 0.00 0.00 67 1020.1
20211205122625 43 113 1.0 2.0 0.00 0.00 0.00 67 1020.0
20211205122522 43 113 1.0 2.0 0.00 0.00 0.00 68 1020.0
20211205122422 43 113 1.0 2.0 0.00 0.00 0.00 68 1020.1
20211205122321 43 113 1.0 2.0 0.00 0.00 0.00 68 1020.1
20211205122220 43 113 1.0 2.0 0.00 0.00 0.00 68 1020.0
20211205122114 43 113 1.0 2.0 0.00 0.00 0.00 68 1020.0
20211205122014 43 113 1.0 2.0 0.00 0.00 0.00 67 1020.0
20211205121913 43 113 1.0 2.0 0.00 0.00 0.00 67 1020.0
20211205121811 43 113 1.0 2.0 0.00 0.00 0.00 67 1020.1
20211205121712 43 113 1.0 2.0 0.00 0.00 0.00 67 1020.0
20211205121609 43 113 1.0 2.0 0.00 0.00 0.00 68 1020.1
20211205121506 43 113 1.0 2.0 0.00 0.00 0.00 67 1020.0
20211205121405 43 113 1.0 2.0 0.00 0.00 0.00 67 1020.0
20211205121307 43 113 1.0 3.0 0.00 0.00 0.00 68 1020.1
20211205121210 43 113 1.0 3.0 0.00 0.00 0.00 68 1020.1
20211205121106 42 113 1.0 3.0 0.00 0.00 0.00 68 1020.1
20211205121005 42 113 1.0 3.0 0.00 0.00 0.00 68 1020.1
20211205120904 42 113 1.0 3.0 0.00 0.00 0.00 68 1020.2
20211205120803 42 113 1.0 3.0 0.00 0.00 0.00 68 1020.2
20211205120703 42 113 1.0 3.0 0.00 0.00 0.00 68 1020.2
20211205120605 42 113 1.0 3.0 0.00 0.00 0.00 68 1020.2
20211205120505 42 113 1.0 3.0 0.00 0.00 0.00 68 1020.2
20211205120403 42 113 1.0 3.0 0.00 0.00 0.00 68 1020.3
20211205120304 42 113 1.0 2.0 0.00 0.00 0.00 68 1020.3
20211205120206 42 113 1.0 2.0 0.00 0.00 0.00 68 1020.3
20211205120113 42 113 1.0 2.0 0.00 0.00 0.00 68 1020.3
20211205120102 42 113 1.0 2.0 0.00 0.00 0.00 68 1020.3
20211205115959 42 113 1.0 2.0 0.00 0.00 0.00 68 1020.3
20211205115900 42 113 1.0 2.0 0.00 0.00 0.00 68 1020.3
20211205115759 42 113 1.0 2.0 0.00 0.00 0.00 68 1020.3
20211205115659 42 113 1.0 2.0 0.00 0.00 0.00 68 1020.3
20211205115558 42 113 2.0 3.0 0.00 0.00 0.00 68 1020.4
20211205115459 42 113 2.0 3.0 0.00 0.00 0.00 68 1020.4
20211205115400 42 113 2.0 3.0 0.00 0.00 0.00 68 1020.4
20211205115259 42 113 2.0 4.0 0.00 0.00 0.00 69 1020.4
20211205115159 42 113 2.0 4.0 0.00 0.00 0.00 69 1020.4
20211205115114 42 113 2.0 4.0 0.00 0.00 0.00 69 1020.4
20211205115059 42 113 2.0 4.0 0.00 0.00 0.00 69 1020.4
20211205114958 42 113 2.0 4.0 0.00 0.00 0.00 69 1020.3
20211205114858 42 114 2.0 4.0 0.00 0.00 0.00 69 1020.4
20211205114800 42 114 2.0 4.0 0.00 0.00 0.00 69 1020.4
20211205114659 42 113 2.0 4.0 0.00 0.00 0.00 69 1020.4
20211205114555 42 113 2.0 4.0 0.00 0.00 0.00 68 1020.4
20211205114455 42 114 2.0 4.0 0.00 0.00 0.00 68 1020.5
20211205114355 42 114 2.0 4.0 0.00 0.00 0.00 68 1020.5
20211205114259 42 87 2.0 3.0 0.00 0.00 0.00 68 1020.5
20211205114151 42 87 2.0 3.0 0.00 0.00 0.00 68 1020.5
20211205114111 42 87 2.0 3.0 0.00 0.00 0.00 69 1020.6
20211205114050 42 87 2.0 3.0 0.00 0.00 0.00 69 1020.6
20211205113951 42 87 2.0 3.0 0.00 0.00 0.00 69 1020.6
20211205113850 42 87 2.0 3.0 0.00 0.00 0.00 69 1020.6
20211205113752 42 87 2.0 3.0 0.00 0.00 0.00 70 1020.6
20211205113646 42 87 2.0 3.0 0.00 0.00 0.00 70 1020.6
20211205113545 42 87 1.0 3.0 0.00 0.00 0.00 69 1020.6
20211205113446 42 87 2.0 3.0 0.00 0.00 0.00 69 1020.6
20211205113346 42 87 1.0 3.0 0.00 0.00 0.00 69 1020.6
20211205113249 42 87 1.0 3.0 0.00 0.00 0.00 69 1020.7
20211205113144 42 87 1.0 2.0 0.00 0.00 0.00 69 1020.8
20211205113106 42 87 1.0 2.0 0.00 0.00 0.00 69 1020.8
20211205113044 42 87 1.0 2.0 0.00 0.00 0.00 69 1020.8
20211205112945 42 87 1.0 2.0 0.00 0.00 0.00 69 1020.8
20211205112844 42 87 1.0 3.0 0.00 0.00 0.00 69 1020.8
20211205112745 42 87 1.0 3.0 0.00 0.00 0.00 69 1020.8
20211205112644 42 87 1.0 3.0 0.00 0.00 0.00 69 1020.9
20211205112545 42 87 1.0 3.0 0.00 0.00 0.00 69 1020.9
20211205112445 42 87 1.0 3.0 0.00 0.00 0.00 70 1020.8
20211205112344 42 87 1.0 3.0 0.00 0.00 0.00 70 1020.8
20211205112246 42 87 2.0 3.0 0.00 0.00 0.00 70 1020.8
20211205112141 42 87 2.0 3.0 0.00 0.00 0.00 70 1020.8
20211205112107 42 87 2.0 3.0 0.00 0.00 0.00 70 1020.8
20211205112043 42 87 2.0 3.0 0.00 0.00 0.00 70 1020.8
20211205111941 41 87 2.0 3.0 0.00 0.00 0.00 70 1020.7
20211205111841 41 87 2.0 3.0 0.00 0.00 0.00 70 1020.6
20211205111738 41 87 2.0 3.0 0.00 0.00 0.00 70 1020.6
20211205111638 41 87 2.0 3.0 0.00 0.00 0.00 70 1020.7
20211205111537 41 87 2.0 3.0 0.00 0.00 0.00 70 1020.7
20211205111438 41 87 2.0 3.0 0.00 0.00 0.00 71 1020.7
20211205111335 41 87 2.0 3.0 0.00 0.00 0.00 70 1020.7
20211205111236 41 87 2.0 3.0 0.00 0.00 0.00 71 1020.7
20211205111107 41 87 2.0 3.0 0.00 0.00 0.00 71 1020.7
20211205111035 41 87 2.0 3.0 0.00 0.00 0.00 72 1020.7
20211205110935 41 87 2.0 3.0 0.00 0.00 0.00 72 1020.7
20211205110836 41 87 2.0 3.0 0.00 0.00 0.00 72 1020.7
20211205110734 41 87 2.0 3.0 0.00 0.00 0.00 72 1020.7
20211205110635 41 87 2.0 3.0 0.00 0.00 0.00 72 1020.7
20211205110532 41 87 2.0 3.0 0.00 0.00 0.00 73 1020.8
20211205110432 41 87 2.0 3.0 0.00 0.00 0.00 73 1020.8
20211205110332 41 87 2.0 3.0 0.00 0.00 0.00 74 1020.7
20211205110232 41 87 2.0 3.0 0.00 0.00 0.00 73 1020.6
20211205110130 41 87 2.0 3.0 0.00 0.00 0.00 74 1020.6
20211205110106 40 87 2.0 3.0 0.00 0.00 0.00 74 1020.6
20211205110030 40 87 2.0 3.0 0.00 0.00 0.00 74 1020.6
20211205105930 40 87 1.0 3.0 0.00 0.00 0.00 74 1020.6
20211205105831 40 87 1.0 3.0 0.00 0.00 0.00 75 1020.7
20211205105730 40 87 1.0 3.0 0.00 0.00 0.00 75 1020.7
20211205105631 40 87 1.0 3.0 0.00 0.00 0.00 75 1020.8
20211205105529 40 87 1.0 4.0 0.00 0.00 0.00 75 1020.8
20211205105430 40 87 1.0 4.0 0.00 0.00 0.00 75 1020.8
20211205105329 40 87 1.0 4.0 0.00 0.00 0.00 74 1020.8
20211205105229 40 88 1.0 4.0 0.00 0.00 0.00 74 1020.9
20211205105107 40 88 1.0 4.0 0.00 0.00 0.00 75 1021.0
20211205105031 40 88 1.0 4.0 0.00 0.00 0.00 75 1021.0
20211205104928 40 88 1.0 4.0 0.00 0.00 0.00 75 1021.0
20211205104829 40 88 2.0 4.0 0.00 0.00 0.00 76 1021.0
20211205104728 40 88 2.0 4.0 0.00 0.00 0.00 76 1020.9
20211205104627 39 88 2.0 4.0 0.00 0.00 0.00 76 1020.8
20211205104527 39 88 2.0 3.0 0.00 0.00 0.00 77 1020.8
20211205104426 39 88 2.0 4.0 0.00 0.00 0.00 78 1020.8
20211205104326 39 88 2.0 4.0 0.00 0.00 0.00 78 1020.8
20211205104226 39 79 2.0 4.0 0.00 0.00 0.00 79 1020.8
20211205104126 39 79 2.0 4.0 0.00 0.00 0.00 79 1020.8
20211205104108 39 79 2.0 4.0 0.00 0.00 0.00 79 1020.9
20211205104026 39 79 2.0 4.0 0.00 0.00 0.00 79 1020.9
20211205103926 39 79 2.0 4.0 0.00 0.00 0.00 80 1020.9
20211205103826 39 79 2.0 4.0 0.00 0.00 0.00 80 1020.9
20211205103724 38 79 1.0 4.0 0.00 0.00 0.00 81 1020.9
20211205103623 38 79 1.0 4.0 0.00 0.00 0.00 81 1020.9
20211205103524 38 80 1.0 4.0 0.00 0.00 0.00 82 1020.9
20211205103423 38 79 1.0 3.0 0.00 0.00 0.00 82 1020.9
20211205103325 38 79 1.0 3.0 0.00 0.00 0.00 83 1020.9
20211205103224 38 79 0.0 3.0 0.00 0.00 0.00 84 1020.9
20211205103107 38 79 0.0 3.0 0.00 0.00 0.00 84 1021.0
20211205103024 38 79 0.0 3.0 0.00 0.00 0.00 85 1021.0
20211205102925 38 71 0.0 0.0 0.00 0.00 0.00 85 1021.0
20211205102824 38 71 0.0 0.0 0.00 0.00 0.00 85 1020.9
20211205102724 38 71 0.0 0.0 0.00 0.00 0.00 85 1021.0
20211205102624 38 71 0.0 0.0 0.00 0.00 0.00 85 1021.0
20211205102524 38 71 0.0 0.0 0.00 0.00 0.00 85 1021.0
20211205102424 37 71 0.0 0.0 0.00 0.00 0.00 85 1021.0
20211205102325 37 71 0.0 0.0 0.00 0.00 0.00 85 1021.0
20211205102225 37 71 0.0 0.0 0.00 0.00 0.00 85 1021.0
20211205102124 37 71 0.0 0.0 0.00 0.00 0.00 85 1021.1
20211205102108 37 71 0.0 0.0 0.00 0.00 0.00 85 1021.0
20211205102025 37 71 0.0 0.0 0.00 0.00 0.00 85 1021.0
20211205101923 37 71 0.0 0.0 0.00 0.00 0.00 85 1021.0
20211205101822 37 71 0.0 0.0 0.00 0.00 0.00 85 1021.1
20211205101723 37 71 0.0 0.0 0.00 0.00 0.00 85 1021.1
20211205101623 37 71 0.0 0.0 0.00 0.00 0.00 85 1021.1
20211205101521 37 71 0.0 0.0 0.00 0.00 0.00 85 1021.1
20211205101423 37 71 0.0 0.0 0.00 0.00 0.00 85 1021.1
20211205101322 37 71 0.0 0.0 0.00 0.00 0.00 85 1021.1
20211205101222 37 71 0.0 0.0 0.00 0.00 0.00 85 1021.0
20211205101107 37 71 0.0 0.0 0.00 0.00 0.00 86 1021.1
20211205101022 37 71 0.0 0.0 0.00 0.00 0.00 86 1021.1
20211205100922 37 71 0.0 0.0 0.00 0.00 0.00 86 1021.1
20211205100822 37 71 0.0 0.0 0.00 0.00 0.00 86 1021.1
20211205100724 37 71 0.0 0.0 0.00 0.00 0.00 85 1021.1
20211205100622 37 71 0.0 0.0 0.00 0.00 0.00 85 1021.2
20211205100518 37 71 0.0 0.0 0.00 0.00 0.00 85 1021.1
20211205100418 37 71 0.0 0.0 0.00 0.00 0.00 85 1021.1
20211205100318 36 71 0.0 0.0 0.00 0.00 0.00 85 1021.2
20211205100219 36 71 0.0 0.0 0.00 0.00 0.00 85 1021.2
20211205100108 36 71 0.0 0.0 0.00 0.00 0.00 85 1021.2
20211205100018 36 71 0.0 0.0 0.00 0.00 0.00 86 1021.2
20211205095916 36 71 0.0 0.0 0.00 0.00 0.00 86 1021.2
20211205095816 36 71 0.0 0.0 0.00 0.00 0.00 86 1021.2
20211205095714 36 71 0.0 0.0 0.00 0.00 0.00 86 1021.2
20211205095614 36 71 0.0 0.0 0.00 0.00 0.00 86 1021.2
20211205095513 36 71 0.0 0.0 0.00 0.00 0.00 86 1021.2
20211205095415 36 71 0.0 0.0 0.00 0.00 0.00 86 1021.2
20211205095309 36 71 0.0 0.0 0.00 0.00 0.00 86 1021.2
20211205095211 36 71 0.0 0.0 0.00 0.00 0.00 86 1021.2
20211205095109 36 71 0.0 0.0 0.00 0.00 0.00 86 1021.2
20211205095010 36 71 0.0 0.0 0.00 0.00 0.00 86 1021.2
20211205094910 35 71 0.0 0.0 0.00 0.00 0.00 86 1021.2
20211205094809 35 71 0.0 0.0 0.00 0.00 0.00 86 1021.3
20211205094711 35 71 0.0 0.0 0.00 0.00 0.00 86 1021.3
20211205094611 35 71 0.0 0.0 0.00 0.00 0.00 86 1021.3
20211205094511 35 71 0.0 0.0 0.00 0.00 0.00 86 1021.3
20211205094410 35 71 0.0 0.0 0.00 0.00 0.00 86 1021.3
20211205094311 35 71 0.0 0.0 0.00 0.00 0.00 86 1021.4
20211205094210 35 71 0.0 0.0 0.00 0.00 0.00 85 1021.4
20211205094109 35 71 0.0 0.0 0.00 0.00 0.00 85 1021.4
20211205094009 35 71 0.0 0.0 0.00 0.00 0.00 85 1021.3
20211205093912 35 71 0.0 0.0 0.00 0.00 0.00 85 1021.4
20211205093810 35 71 0.0 0.0 0.00 0.00 0.00 85 1021.4
20211205093710 35 71 0.0 0.0 0.00 0.00 0.00 85 1021.4
20211205093610 35 71 0.0 0.0 0.00 0.00 0.00 85 1021.4
20211205093511 35 71 0.0 0.0 0.00 0.00 0.00 85 1021.4
20211205093410 35 71 0.0 0.0 0.00 0.00 0.00 85 1021.4
20211205093311 35 71 0.0 0.0 0.00 0.00 0.00 85 1021.4
20211205093210 35 71 0.0 0.0 0.00 0.00 0.00 85 1021.4
20211205093110 35 71 0.0 0.0 0.00 0.00 0.00 85 1021.5
20211205093009 35 71 0.0 0.0 0.00 0.00 0.00 85 1021.5
20211205092912 35 71 0.0 0.0 0.00 0.00 0.00 85 1021.5
20211205092809 34 71 0.0 0.0 0.00 0.00 0.00 85 1021.5
20211205092709 34 71 0.0 0.0 0.00 0.00 0.00 85 1021.5
20211205092608 34 71 0.0 0.0 0.00 0.00 0.00 85 1021.5
20211205092508 34 71 0.0 0.0 0.00 0.00 0.00 85 1021.5
20211205092410 34 71 0.0 0.0 0.00 0.00 0.00 85 1021.5
20211205092308 34 71 0.0 0.0 0.00 0.00 0.00 84 1021.5
20211205092209 34 71 0.0 0.0 0.00 0.00 0.00 84 1021.5
20211205092106 34 71 0.0 0.0 0.00 0.00 0.00 84 1021.5
20211205092008 34 71 0.0 0.0 0.00 0.00 0.00 83 1021.6
20211205091908 34 71 0.0 0.0 0.00 0.00 0.00 83 1021.6
20211205091808 34 71 0.0 0.0 0.00 0.00 0.00 83 1021.6
20211205091708 34 71 0.0 0.0 0.00 0.00 0.00 83 1021.6
20211205091609 34 71 0.0 0.0 0.00 0.00 0.00 83 1021.6
20211205091506 34 71 0.0 0.0 0.00 0.00 0.00 83 1021.6
20211205091403 34 71 0.0 0.0 0.00 0.00 0.00 82 1021.6
20211205091305 34 71 0.0 0.0 0.00 0.00 0.00 82 1021.6
20211205091203 34 71 0.0 0.0 0.00 0.00 0.00 82 1021.6
20211205091105 34 71 0.0 0.0 0.00 0.00 0.00 82 1021.6
20211205091003 34 71 0.0 0.0 0.00 0.00 0.00 82 1021.5
20211205090903 34 71 0.0 0.0 0.00 0.00 0.00 82 1021.6
20211205090803 34 71 0.0 0.0 0.00 0.00 0.00 82 1021.6
20211205090705 34 71 0.0 0.0 0.00 0.00 0.00 82 1021.6
20211205090604 34 71 0.0 0.0 0.00 0.00 0.00 82 1021.6
20211205090505 34 71 0.0 0.0 0.00 0.00 0.00 82 1021.6
20211205090403 34 71 0.0 0.0 0.00 0.00 0.00 82 1021.5
20211205090304 34 71 0.0 0.0 0.00 0.00 0.00 82 1021.6
20211205090204 34 71 0.0 0.0 0.00 0.00 0.00 82 1021.6
20211205090103 34 71 0.0 0.0 0.00 0.00 0.00 82 1021.5
20211205090003 34 71 0.0 0.0 0.00 0.00 0.00 82 1021.6
20211205085904 34 71 0.0 0.0 0.00 0.00 0.00 81 1021.6
20211205085804 34 71 0.0 0.0 0.00 0.00 0.00 81 1021.6
20211205085705 34 71 0.0 0.0 0.00 0.00 0.00 82 1021.6
20211205085600 34 71 0.0 0.0 0.00 0.00 0.00 81 1021.6
20211205085501 34 71 0.0 0.0 0.00 0.00 0.00 81 1021.6
20211205085359 34 71 0.0 0.0 0.00 0.00 0.00 81 1021.6
20211205085305 34 163 0.0 0.0 0.00 0.00 0.00 81 1021.6
20211205085159 34 163 0.0 0.0 0.00 0.00 0.00 81 1021.6
20211205085105 34 163 0.0 0.0 0.00 0.00 0.00 81 1021.5
20211205085056 34 163 0.0 0.0 0.00 0.00 0.00 81 1021.5
20211205084956 34 163 0.0 0.0 0.00 0.00 0.00 81 1021.6
20211205084856 34 163 0.0 0.0 0.00 0.00 0.00 82 1021.6
20211205084757 34 163 0.0 0.0 0.00 0.00 0.00 82 1021.6
20211205084656 34 163 0.0 0.0 0.00 0.00 0.00 82 1021.7
20211205084557 34 163 0.0 0.0 0.00 0.00 0.00 82 1021.7
20211205084503 34 163 0.0 0.0 0.00 0.00 0.00 82 1021.7
20211205084357 34 163 0.0 0.0 0.00 0.00 0.00 82 1021.7
20211205084255 34 163 0.0 0.0 0.00 0.00 0.00 82 1021.7
20211205084157 34 163 0.0 0.0 0.00 0.00 0.00 82 1021.7
20211205084106 34 163 0.0 0.0 0.00 0.00 0.00 82 1021.8
20211205084056 34 163 0.0 0.0 0.00 0.00 0.00 82 1021.8
20211205083957 34 163 0.0 0.0 0.00 0.00 0.00 82 1021.8
20211205083855 34 163 0.0 0.0 0.00 0.00 0.00 82 1021.8
20211205083758 34 163 0.0 0.0 0.00 0.00 0.00 82 1021.7
20211205083653 34 163 0.0 0.0 0.00 0.00 0.00 82 1021.7
20211205083551 34 163 0.0 0.0 0.00 0.00 0.00 82 1021.8
20211205083453 34 163 0.0 0.0 0.00 0.00 0.00 82 1021.8
20211205083351 35 163 0.0 0.0 0.00 0.00 0.00 82 1021.8
20211205083253 35 163 0.0 0.0 0.00 0.00 0.00 82 1021.8
20211205083152 35 163 0.0 0.0 0.00 0.00 0.00 82 1021.8
20211205083106 35 163 0.0 0.0 0.00 0.00 0.00 82 1021.9
20211205083052 35 163 0.0 0.0 0.00 0.00 0.00 82 1021.9
20211205082955 35 163 0.0 0.0 0.00 0.00 0.00 82 1021.9
20211205082851 35 163 0.0 0.0 0.00 0.00 0.00 81 1021.9
20211205082752 35 163 0.0 0.0 0.00 0.00 0.00 81 1021.9
20211205082651 35 163 0.0 0.0 0.00 0.00 0.00 81 1021.9
20211205082551 35 163 0.0 0.0 0.00 0.00 0.00 82 1021.9
20211205082454 35 163 0.0 0.0 0.00 0.00 0.00 82 1021.9
20211205082351 35 163 0.0 0.0 0.00 0.00 0.00 82 1021.9
20211205082253 35 163 0.0 0.0 0.00 0.00 0.00 82 1021.9
20211205082151 35 163 0.0 0.0 0.00 0.00 0.00 82 1021.9
20211205082105 35 163 0.0 0.0 0.00 0.00 0.00 82 1021.9
20211205082053 35 163 0.0 0.0 0.00 0.00 0.00 82 1021.9
20211205081951 35 163 0.0 0.0 0.00 0.00 0.00 82 1021.8
20211205081854 35 163 0.0 0.0 0.00 0.00 0.00 82 1021.8
20211205081749 35 163 0.0 0.0 0.00 0.00 0.00 82 1021.8
20211205081648 35 163 0.0 0.0 0.00 0.00 0.00 82 1021.8
20211205081549 35 163 0.0 0.0 0.00 0.00 0.00 82 1021.8
20211205081459 35 163 0.0 0.0 0.00 0.00 0.00 82 1021.9
20211205081347 35 163 0.0 0.0 0.00 0.00 0.00 82 1021.9
20211205081248 35 163 0.0 0.0 0.00 0.00 0.00 82 1021.9
20211205081148 35 163 0.0 0.0 0.00 0.00 0.00 82 1021.9
20211205081105 35 163 0.0 0.0 0.00 0.00 0.00 82 1021.9
20211205081048 35 163 0.0 0.0 0.00 0.00 0.00 82 1021.9
20211205080948 35 163 0.0 0.0 0.00 0.00 0.00 82 1021.9
20211205080848 35 163 0.0 0.0 0.00 0.00 0.00 82 1021.9
20211205080748 35 163 0.0 0.0 0.00 0.00 0.00 81 1021.8
20211205080647 35 163 0.0 0.0 0.00 0.00 0.00 82 1021.9
20211205080548 35 163 0.0 0.0 0.00 0.00 0.00 82 1021.8
20211205080447 35 163 0.0 0.0 0.00 0.00 0.00 81 1021.8
20211205080349 35 163 0.0 0.0 0.00 0.00 0.00 82 1021.8
20211205080247 35 163 0.0 0.0 0.00 0.00 0.00 81 1021.8
20211205080148 35 163 0.0 0.0 0.00 0.00 0.00 81 1021.8
20211205080108 35 163 0.0 0.0 0.00 0.00 0.00 81 1021.9
20211205080048 35 163 0.0 0.0 0.00 0.00 0.00 81 1021.9
20211205075951 35 163 0.0 0.0 0.00 0.00 0.00 81 1021.8
20211205075845 35 163 0.0 0.0 0.00 0.00 0.00 81 1021.9
20211205075743 35 163 0.0 0.0 0.00 0.00 0.00 81 1021.9
20211205075648 35 163 0.0 0.0 0.00 0.00 0.00 81 1021.9
20211205075544 35 163 0.0 0.0 0.00 0.00 0.00 81 1021.9
20211205075444 35 163 0.0 0.0 0.00 0.00 0.00 81 1021.9
20211205075345 35 163 0.0 0.0 0.00 0.00 0.00 81 1021.9
20211205075245 35 163 0.0 0.0 0.00 0.00 0.00 81 1021.9
20211205075143 35 163 0.0 0.0 0.00 0.00 0.00 81 1021.9
20211205075107 35 163 0.0 0.0 0.00 0.00 0.00 81 1021.9
20211205075045 35 163 0.0 0.0 0.00 0.00 0.00 81 1021.9
20211205074943 35 163 0.0 0.0 0.00 0.00 0.00 81 1021.9
20211205074844 35 163 0.0 0.0 0.00 0.00 0.00 81 1021.9
20211205074743 35 163 0.0 0.0 0.00 0.00 0.00 81 1021.9
20211205074644 35 163 0.0 0.0 0.00 0.00 0.00 81 1021.9
20211205074544 35 163 0.0 0.0 0.00 0.00 0.00 81 1021.9
20211205074445 35 163 0.0 0.0 0.00 0.00 0.00 81 1021.9
20211205074343 35 163 0.0 0.0 0.00 0.00 0.00 81 1021.9
20211205074245 35 163 0.0 0.0 0.00 0.00 0.00 81 1021.9
20211205074145 35 163 0.0 0.0 0.00 0.00 0.00 81 1021.9
20211205074105 35 163 0.0 0.0 0.00 0.00 0.00 81 1021.9
20211205074045 35 163 0.0 0.0 0.00 0.00 0.00 81 1021.9
20211205073941 35 163 0.0 0.0 0.00 0.00 0.00 81 1021.9
20211205073839 35 163 0.0 0.0 0.00 0.00 0.00 81 1021.9
20211205073739 35 163 0.0 0.0 0.00 0.00 0.00 81 1022.0
20211205073640 35 163 0.0 0.0 0.00 0.00 0.00 81 1022.0
20211205073541 35 163 0.0 0.0 0.00 0.00 0.00 81 1022.0
20211205073440 35 163 0.0 0.0 0.00 0.00 0.00 81 1022.0
20211205073341 35 163 0.0 0.0 0.00 0.00 0.00 81 1022.0
20211205073240 35 163 0.0 0.0 0.00 0.00 0.00 81 1022.0
20211205073140 35 163 0.0 0.0 0.00 0.00 0.00 81 1022.0
20211205073106 35 163 0.0 0.0 0.00 0.00 0.00 81 1022.0
20211205073039 35 163 0.0 0.0 0.00 0.00 0.00 81 1022.0
20211205072940 35 163 0.0 0.0 0.00 0.00 0.00 81 1022.1
20211205072839 35 163 0.0 0.0 0.00 0.00 0.00 81 1022.1
20211205072741 35 163 0.0 0.0 0.00 0.00 0.00 81 1022.1
20211205072639 35 163 0.0 0.0 0.00 0.00 0.00 81 1022.1
20211205072539 35 163 0.0 0.0 0.00 0.00 0.00 81 1022.1
20211205072440 35 163 0.0 0.0 0.00 0.00 0.00 81 1022.0
20211205072340 35 163 0.0 0.0 0.00 0.00 0.00 81 1022.0
20211205072239 35 163 0.0 0.0 0.00 0.00 0.00 81 1022.0
20211205072142 35 163 0.0 0.0 0.00 0.00 0.00 81 1022.0
20211205072104 35 163 0.0 0.0 0.00 0.00 0.00 81 1022.0
20211205072037 35 163 0.0 0.0 0.00 0.00 0.00 80 1022.0
20211205071937 35 163 0.0 0.0 0.00 0.00 0.00 80 1022.0
20211205071837 35 163 0.0 0.0 0.00 0.00 0.00 80 1022.0
20211205071735 35 163 0.0 0.0 0.00 0.00 0.00 80 1022.0
20211205071636 35 163 0.0 0.0 0.00 0.00 0.00 80 1022.0
20211205071537 35 163 0.0 0.0 0.00 0.00 0.00 80 1022.1
20211205071436 35 163 0.0 0.0 0.00 0.00 0.00 80 1022.0
20211205071335 35 163 0.0 0.0 0.00 0.00 0.00 80 1022.0
20211205071236 35 163 0.0 0.0 0.00 0.00 0.00 80 1022.1
20211205071136 35 163 0.0 0.0 0.00 0.00 0.00 80 1022.1
20211205071105 35 163 0.0 0.0 0.00 0.00 0.00 80 1022.1
20211205071036 35 163 0.0 0.0 0.00 0.00 0.00 80 1022.1
20211205070936 35 163 0.0 0.0 0.00 0.00 0.00 80 1022.0
20211205070837 35 163 0.0 0.0 0.00 0.00 0.00 80 1022.0
20211205070735 35 163 0.0 0.0 0.00 0.00 0.00 80 1022.0
20211205070637 35 163 0.0 0.0 0.00 0.00 0.00 80 1022.0
20211205070535 35 163 0.0 0.0 0.00 0.00 0.00 80 1022.0
20211205070437 35 163 0.0 0.0 0.00 0.00 0.00 80 1022.0
20211205070338 35 163 0.0 0.0 0.00 0.00 0.00 80 1022.0
20211205070236 35 163 0.0 0.0 0.00 0.00 0.00 80 1022.0
20211205070131 35 163 0.0 0.0 0.00 0.00 0.00 80 1022.1
20211205070105 35 163 0.0 0.0 0.00 0.00 0.00 80 1022.0
20211205070032 35 163 0.0 0.0 0.00 0.00 0.00 80 1022.0
20211205065931 35 163 0.0 0.0 0.00 0.00 0.00 80 1022.1
20211205065831 35 163 0.0 0.0 0.00 0.00 0.00 80 1022.1
20211205065733 35 163 0.0 0.0 0.00 0.00 0.00 80 1022.1
20211205065632 35 163 0.0 0.0 0.00 0.00 0.00 80 1022.1
20211205065532 35 163 0.0 0.0 0.00 0.00 0.00 80 1022.1
20211205065431 35 163 0.0 0.0 0.00 0.00 0.00 80 1022.1
20211205065331 35 163 0.0 0.0 0.00 0.00 0.00 80 1022.2
20211205065232 35 163 0.0 0.0 0.00 0.00 0.00 80 1022.1
20211205065135 35 163 0.0 0.0 0.00 0.00 0.00 80 1022.2
20211205065107 35 163 0.0 0.0 0.00 0.00 0.00 80 1022.1
20211205065032 35 163 0.0 0.0 0.00 0.00 0.00 80 1022.1
20211205064931 35 163 0.0 0.0 0.00 0.00 0.00 80 1022.1
20211205064832 35 163 0.0 0.0 0.00 0.00 0.00 80 1022.2
20211205064731 35 163 0.0 0.0 0.00 0.00 0.00 80 1022.1
20211205064632 35 163 0.0 0.0 0.00 0.00 0.00 80 1022.2
20211205064533 35 163 0.0 0.0 0.00 0.00 0.00 80 1022.3
20211205064431 35 163 0.0 0.0 0.00 0.00 0.00 80 1022.3
20211205064333 35 163 0.0 0.0 0.00 0.00 0.00 80 1022.3
20211205064228 35 163 0.0 0.0 0.00 0.00 0.00 79 1022.2
20211205064106 35 163 0.0 0.0 0.00 0.00 0.00 79 1022.3
20211205064027 35 163 0.0 0.0 0.00 0.00 0.00 79 1022.3
20211205063928 35 163 0.0 0.0 0.00 0.00 0.00 79 1022.3
20211205063828 35 163 0.0 0.0 0.00 0.00 0.00 79 1022.3
20211205063729 35 163 0.0 0.0 0.00 0.00 0.00 79 1022.3
20211205063627 35 163 0.0 0.0 0.00 0.00 0.00 79 1022.3
20211205063527 35 163 0.0 0.0 0.00 0.00 0.00 79 1022.3
20211205063428 35 163 0.0 0.0 0.00 0.00 0.00 79 1022.4
20211205063327 35 163 0.0 0.0 0.00 0.00 0.00 79 1022.4
20211205063229 35 163 0.0 0.0 0.00 0.00 0.00 79 1022.4
20211205063105 35 163 0.0 0.0 0.00 0.00 0.00 79 1022.4
20211205063028 35 163 0.0 0.0 0.00 0.00 0.00 79 1022.4
20211205062929 35 163 0.0 0.0 0.00 0.00 0.00 79 1022.4
20211205062827 36 163 0.0 0.0 0.00 0.00 0.00 79 1022.4
20211205062729 36 163 0.0 0.0 0.00 0.00 0.00 79 1022.4
20211205062628 36 163 0.0 0.0 0.00 0.00 0.00 79 1022.5
20211205062528 36 163 0.0 0.0 0.00 0.00 0.00 79 1022.5
20211205062429 36 163 0.0 0.0 0.00 0.00 0.00 78 1022.6
20211205062324 36 163 0.0 0.0 0.00 0.00 0.00 79 1022.6
20211205062225 36 163 0.0 0.0 0.00 0.00 0.00 78 1022.6
20211205062123 36 163 0.0 0.0 0.00 0.00 0.00 78 1022.6
20211205062105 36 163 0.0 0.0 0.00 0.00 0.00 78 1022.7
20211205062024 36 163 0.0 0.0 0.00 0.00 0.00 78 1022.7
20211205061925 36 163 0.0 0.0 0.00 0.00 0.00 78 1022.6
20211205061825 36 163 0.0 0.0 0.00 0.00 0.00 78 1022.6
20211205061723 36 163 0.0 0.0 0.00 0.00 0.00 78 1022.7
20211205061623 36 163 0.0 0.0 0.00 0.00 0.00 78 1022.7
20211205061523 36 163 0.0 0.0 0.00 0.00 0.00 78 1022.7
20211205061426 36 163 0.0 0.0 0.00 0.00 0.00 78 1022.7
20211205061323 36 163 0.0 0.0 0.00 0.00 0.00 78 1022.7
20211205061225 36 163 0.0 0.0 0.00 0.00 0.00 78 1022.8
20211205061106 36 163 0.0 0.0 0.00 0.00 0.00 78 1022.8
20211205061025 36 163 0.0 0.0 0.00 0.00 0.00 78 1022.8
20211205060925 36 163 0.0 0.0 0.00 0.00 0.00 78 1022.8
20211205060823 36 163 0.0 0.0 0.00 0.00 0.00 78 1022.8
20211205060725 36 163 0.0 0.0 0.00 0.00 0.00 78 1022.8
20211205060624 36 163 0.0 0.0 0.00 0.00 0.00 78 1022.8
20211205060524 36 163 0.0 0.0 0.00 0.00 0.00 78 1022.9
20211205060423 36 163 0.0 0.0 0.00 0.00 0.00 78 1022.9
20211205060319 36 163 0.0 0.0 0.00 0.00 0.00 78 1022.9
20211205060220 36 163 0.0 0.0 0.00 0.00 0.00 78 1023.0
20211205060106 36 163 0.0 0.0 0.00 0.00 0.00 78 1023.0
20211205060020 36 163 0.0 0.0 0.00 0.00 0.00 79 1023.0
20211205055920 36 163 0.0 0.0 0.00 0.00 0.00 79 1023.0
20211205055819 36 163 0.0 0.0 0.00 0.00 0.00 79 1023.0
20211205055720 36 163 0.0 0.0 0.00 0.00 0.00 78 1023.0
20211205055620 36 163 0.0 0.0 0.00 0.00 0.00 78 1023.0
20211205055519 36 163 0.0 0.0 0.00 0.00 0.00 78 1023.0
20211205055421 36 163 0.0 0.0 0.00 0.00 0.00 79 1023.1
20211205055319 36 163 0.0 0.0 0.00 0.00 0.00 79 1023.1
20211205055219 36 163 0.0 0.0 0.00 0.00 0.00 79 1023.1
20211205055104 36 163 0.0 0.0 0.00 0.00 0.00 79 1023.1
20211205055020 36 163 0.0 0.0 0.00 0.00 0.00 79 1023.1
20211205054920 36 163 0.0 0.0 0.00 0.00 0.00 78 1023.1
20211205054819 36 163 0.0 0.0 0.00 0.00 0.00 78 1023.2
20211205054719 36 163 0.0 0.0 0.00 0.00 0.00 78 1023.2
20211205054621 36 163 0.0 0.0 0.00 0.00 0.00 78 1023.1
20211205054516 36 163 0.0 0.0 0.00 0.00 0.00 78 1023.1
20211205054415 36 163 0.0 0.0 0.00 0.00 0.00 78 1023.2
20211205054315 37 163 0.0 0.0 0.00 0.00 0.00 78 1023.2
20211205054106 37 163 0.0 0.0 0.00 0.00 0.00 78 1023.2
20211205054016 37 163 0.0 0.0 0.00 0.00 0.00 78 1023.3
20211205053917 37 163 0.0 0.0 0.00 0.00 0.00 77 1023.2
20211205053816 37 163 0.0 0.0 0.00 0.00 0.00 77 1023.3
20211205053718 37 163 0.0 0.0 0.00 0.00 0.00 77 1023.3
20211205053615 37 163 0.0 0.0 0.00 0.00 0.00 77 1023.4
20211205053516 37 163 0.0 0.0 0.00 0.00 0.00 77 1023.3
20211205053416 37 163 0.0 0.0 0.00 0.00 0.00 77 1023.3
20211205053316 37 163 0.0 0.0 0.00 0.00 0.00 77 1023.4
20211205053218 37 163 0.0 0.0 0.00 0.00 0.00 77 1023.4
20211205053105 37 163 0.0 0.0 0.00 0.00 0.00 77 1023.4
20211205053016 37 163 0.0 0.0 0.00 0.00 0.00 77 1023.5
20211205052916 37 163 0.0 0.0 0.00 0.00 0.00 78 1023.5
20211205052817 37 163 0.0 0.0 0.00 0.00 0.00 78 1023.5
20211205052719 37 163 0.0 0.0 0.00 0.00 0.00 77 1023.5
20211205052612 37 163 0.0 0.0 0.00 0.00 0.00 77 1023.4
20211205052512 37 163 0.0 0.0 0.00 0.00 0.00 77 1023.4
20211205052414 37 163 0.0 0.0 0.00 0.00 0.00 77 1023.5
20211205052311 37 163 0.0 0.0 0.00 0.00 0.00 77 1023.5
20211205052212 37 163 0.0 0.0 0.00 0.00 0.00 77 1023.4
20211205052106 37 163 0.0 0.0 0.00 0.00 0.00 77 1023.5
20211205052012 37 163 0.0 0.0 0.00 0.00 0.00 77 1023.4
20211205051911 37 163 0.0 0.0 0.00 0.00 0.00 77 1023.5
20211205051813 37 163 0.0 0.0 0.00 0.00 0.00 77 1023.5
20211205051712 37 163 0.0 0.0 0.00 0.00 0.00 77 1023.5
20211205051611 37 163 0.0 0.0 0.00 0.00 0.00 77 1023.5
20211205051509 37 163 0.0 0.0 0.00 0.00 0.00 77 1023.5
20211205051411 37 163 0.0 0.0 0.00 0.00 0.00 77 1023.6
20211205051309 37 163 0.0 0.0 0.00 0.00 0.00 77 1023.6
20211205051210 37 163 0.0 0.0 0.00 0.00 0.00 77 1023.6
20211205051104 37 163 0.0 0.0 0.00 0.00 0.00 77 1023.6
20211205051010 37 163 0.0 0.0 0.00 0.00 0.00 77 1023.5
20211205050910 37 163 0.0 0.0 0.00 0.00 0.00 77 1023.6
20211205050811 37 163 0.0 0.0 0.00 0.00 0.00 77 1023.6
20211205050706 37 163 0.0 0.0 0.00 0.00 0.00 77 1023.5
20211205050605 37 163 0.0 0.0 0.00 0.00 0.00 77 1023.5
20211205050507 37 163 0.0 0.0 0.00 0.00 0.00 77 1023.6
20211205050405 37 163 0.0 0.0 0.00 0.00 0.00 77 1023.5
20211205050307 37 163 0.0 0.0 0.00 0.00 0.00 77 1023.5
20211205050205 37 163 0.0 0.0 0.00 0.00 0.00 77 1023.5
20211205050103 38 163 0.0 0.0 0.00 0.00 0.00 77 1023.5
20211205050003 38 163 0.0 0.0 0.00 0.00 0.00 77 1023.5
20211205045904 38 163 0.0 0.0 0.00 0.00 0.00 76 1023.5
20211205045804 38 163 0.0 0.0 0.00 0.00 0.00 76 1023.5
20211205045704 38 163 0.0 0.0 0.00 0.00 0.00 76 1023.5
20211205045606 38 163 0.0 0.0 0.00 0.00 0.00 76 1023.5
20211205045505 38 163 0.0 0.0 0.00 0.00 0.00 76 1023.5
20211205045402 38 163 0.0 0.0 0.00 0.00 0.00 76 1023.5
20211205045306 38 163 0.0 0.0 0.00 0.00 0.00 76 1023.5
20211205045200 38 163 0.0 0.0 0.00 0.00 0.00 76 1023.5
20211205045104 38 163 0.0 0.0 0.00 0.00 0.00 76 1023.5
20211205045059 38 163 0.0 0.0 0.00 0.00 0.00 76 1023.5
20211205044955 38 163 0.0 0.0 0.00 0.00 0.00 76 1023.5
20211205044852 38 163 0.0 0.0 0.00 0.00 0.00 76 1023.5
20211205044755 38 163 0.0 0.0 0.00 0.00 0.00 76 1023.5
20211205044652 38 163 0.0 0.0 0.00 0.00 0.00 76 1023.5
20211205044553 38 163 0.0 0.0 0.00 0.00 0.00 76 1023.5
20211205044457 38 163 0.0 0.0 0.00 0.00 0.00 76 1023.5
20211205044347 38 163 0.0 0.0 0.00 0.00 0.00 76 1023.5
20211205044245 38 163 0.0 0.0 0.00 0.00 0.00 76 1023.5
20211205044147 38 163 0.0 0.0 0.00 0.00 0.00 76 1023.5
20211205044059 38 117 0.0 0.0 0.00 0.00 0.00 76 1023.5
20211205044047 38 83 0.0 0.0 0.00 0.00 0.00 76 1023.5
20211205043947 38 81 0.0 0.0 0.00 0.00 0.00 75 1023.5
20211205043843 38 81 0.0 0.0 0.00 0.00 0.00 75 1023.5
20211205043745 38 81 0.0 0.0 0.00 0.00 0.00 75 1023.5
20211205043643 38 81 0.0 0.0 0.00 0.00 0.00 75 1023.5
20211205043542 38 81 0.0 0.0 0.00 0.00 0.00 75 1023.5
20211205043441 38 81 0.0 0.0 0.00 0.00 0.00 75 1023.6
20211205043339 38 81 0.0 0.0 0.00 0.00 0.00 75 1023.5
20211205043238 38 81 0.0 0.0 0.00 0.00 0.00 75 1023.6
20211205043137 38 81 0.0 0.0 0.00 0.00 0.00 75 1023.6
20211205043035 38 81 0.0 0.0 0.00 0.00 0.00 75 1023.6
20211205042931 38 81 0.0 0.0 0.00 0.00 0.00 75 1023.6
20211205042830 38 81 0.0 0.0 0.00 0.00 0.00 75 1023.5
20211205042729 38 81 0.0 0.0 0.00 0.00 0.00 75 1023.5
20211205042629 38 81 0.0 0.0 0.00 0.00 0.00 75 1023.6
20211205042527 38 81 0.0 0.0 0.00 0.00 0.00 75 1023.6
20211205042421 38 81 0.0 0.0 0.00 0.00 0.00 75 1023.6
20211205042322 39 81 0.0 0.0 0.00 0.00 0.00 74 1023.5
20211205042220 39 81 0.0 0.0 0.00 0.00 0.00 74 1023.5
20211205042121 39 81 0.0 0.0 0.00 0.00 0.00 74 1023.5
20211205042059 39 81 0.0 0.0 0.00 0.00 0.00 74 1023.6
20211205042020 39 81 0.0 0.0 0.00 0.00 0.00 74 1023.6
20211205041913 39 81 0.0 0.0 0.00 0.00 0.00 74 1023.6
20211205041815 39 81 0.0 0.0 0.00 0.00 0.00 74 1023.6
20211205041715 39 81 0.0 0.0 0.00 0.00 0.00 74 1023.6
20211205041615 39 81 0.0 0.0 0.00 0.00 0.00 74 1023.6
20211205041515 39 81 0.0 0.0 0.00 0.00 0.00 74 1023.7
20211205041409 39 81 0.0 0.0 0.00 0.00 0.00 74 1023.7
20211205041308 39 81 0.0 0.0 0.00 0.00 0.00 74 1023.6
20211205041209 39 81 0.0 0.0 0.00 0.00 0.00 73 1023.6
20211205041107 39 81 0.0 0.0 0.00 0.00 0.00 73 1023.6
20211205041058 39 81 0.0 0.0 0.00 0.00 0.00 73 1023.6
20211205041009 39 81 0.0 0.0 0.00 0.00 0.00 73 1023.5
20211205040907 39 81 0.0 0.0 0.00 0.00 0.00 73 1023.6
20211205040805 39 81 0.0 0.0 0.00 0.00 0.00 73 1023.6
20211205040707 39 81 0.0 0.0 0.00 0.00 0.00 73 1023.6
20211205040605 39 81 0.0 0.0 0.00 0.00 0.00 73 1023.5
20211205040503 39 81 0.0 0.0 0.00 0.00 0.00 73 1023.6
20211205040357 39 81 0.0 0.0 0.00 0.00 0.00 73 1023.6
20211205040256 39 81 0.0 0.0 0.00 0.00 0.00 74 1023.6
20211205040156 39 81 0.0 0.0 0.00 0.00 0.00 73 1023.6
20211205040056 39 81 0.0 0.0 0.00 0.00 0.00 73 1023.6
20211205035957 39 81 0.0 0.0 0.00 0.00 0.00 73 1023.6
20211205035857 40 81 0.0 0.0 0.00 0.00 0.00 73 1023.6
20211205035753 40 81 0.0 0.0 0.00 0.00 0.00 73 1023.6
20211205035653 40 81 0.0 0.0 0.00 0.00 0.00 72 1023.6
20211205035552 40 81 0.0 0.0 0.00 0.00 0.00 72 1023.5
20211205035452 40 81 0.0 0.0 0.00 0.00 0.00 73 1023.5
20211205035349 40 81 0.0 0.0 0.00 0.00 0.00 73 1023.5
20211205035249 40 81 0.0 0.0 0.00 0.00 0.00 73 1023.5
20211205035149 40 81 0.0 0.0 0.00 0.00 0.00 73 1023.5
20211205035046 40 81 0.0 0.0 0.00 0.00 0.00 72 1023.5
20211205034945 40 81 0.0 0.0 0.00 0.00 0.00 72 1023.5
20211205034841 40 81 0.0 0.0 0.00 0.00 0.00 72 1023.5
20211205034739 40 81 0.0 0.0 0.00 0.00 0.00 72 1023.5
20211205034639 40 81 0.0 0.0 0.00 0.00 0.00 72 1023.5
20211205034538 40 81 0.0 0.0 0.00 0.00 0.00 72 1023.6
20211205034447 40 81 0.0 0.0 0.00 0.00 0.00 72 1023.6
20211205034332 40 81 0.0 0.0 0.00 0.00 0.00 72 1023.6
20211205034233 40 81 0.0 0.0 0.00 0.00 0.00 72 1023.5
20211205034133 40 81 0.0 0.0 0.00 0.00 0.00 72 1023.6
20211205034033 40 81 0.0 0.0 0.00 0.00 0.00 72 1023.6
20211205033932 40 81 0.0 0.0 0.00 0.00 0.00 72 1023.6
20211205033832 40 81 0.0 0.0 0.00 0.00 0.00 72 1023.6
20211205033731 40 81 0.0 0.0 0.00 0.00 0.00 72 1023.6
20211205033630 40 81 0.0 0.0 0.00 0.00 0.00 72 1023.6
20211205033528 40 81 0.0 0.0 0.00 0.00 0.00 72 1023.6
20211205033426 40 81 0.0 0.0 0.00 0.00 0.00 72 1023.6
20211205033319 40 81 0.0 0.0 0.00 0.00 0.00 72 1023.6
20211205033221 40 81 0.0 0.0 0.00 0.00 0.00 72 1023.7
20211205033121 41 81 0.0 0.0 0.00 0.00 0.00 72 1023.7
20211205033100 40 81 0.0 0.0 0.00 0.00 0.00 71 1023.7
20211205033020 40 81 0.0 0.0 0.00 0.00 0.00 71 1023.7
20211205032920 41 81 0.0 0.0 0.00 0.00 0.00 72 1023.7
20211205032814 41 81 0.0 0.0 0.00 0.00 0.00 71 1023.8
20211205032717 41 81 0.0 0.0 0.00 0.00 0.00 71 1023.8
20211205032614 41 81 0.0 0.0 0.00 0.00 0.00 71 1023.8
20211205032515 41 81 0.0 0.0 0.00 0.00 0.00 71 1023.8
20211205032416 41 81 0.0 0.0 0.00 0.00 0.00 71 1023.9
20211205032315 41 81 0.0 0.0 0.00 0.00 0.00 71 1023.9
20211205032212 41 81 0.0 0.0 0.00 0.00 0.00 71 1023.9
20211205032114 41 81 0.0 0.0 0.00 0.00 0.00 71 1023.9
20211205032054 41 81 0.0 0.0 0.00 0.00 0.00 71 1023.9
20211205032010 41 81 0.0 0.0 0.00 0.00 0.00 71 1023.9
20211205031908 41 81 0.0 1.0 0.00 0.00 0.00 71 1023.9
20211205031802 41 81 0.0 1.0 0.00 0.00 0.00 70 1024.0
20211205031703 41 81 0.0 1.0 0.00 0.00 0.00 70 1024.0
20211205031604 42 81 0.0 1.0 0.00 0.00 0.00 70 1024.0
20211205031503 42 81 1.0 1.0 0.00 0.00 0.00 70 1024.0
20211205031403 42 81 1.0 1.0 0.00 0.00 0.00 70 1024.0
20211205031257 42 81 1.0 1.0 0.00 0.00 0.00 70 1024.0
20211205031157 42 81 1.0 1.0 0.00 0.00 0.00 69 1024.0
20211205031055 42 81 1.0 1.0 0.00 0.00 0.00 69 1024.0
20211205030956 42 81 1.0 1.0 0.00 0.00 0.00 69 1024.1
20211205030856 42 81 1.0 1.0 0.00 0.00 0.00 69 1024.1
20211205030750 42 81 0.0 1.0 0.00 0.00 0.00 69 1024.1
20211205030651 42 81 0.0 1.0 0.00 0.00 0.00 69 1024.1
20211205030551 42 81 0.0 1.0 0.00 0.00 0.00 69 1024.1
20211205030450 42 81 0.0 1.0 0.00 0.00 0.00 69 1024.1
20211205030351 42 81 0.0 1.0 0.00 0.00 0.00 68 1024.1
20211205030246 42 81 0.0 2.0 0.00 0.00 0.00 68 1024.1
20211205030144 42 81 0.0 2.0 0.00 0.00 0.00 68 1024.1
20211205030044 42 81 0.0 2.0 0.00 0.00 0.00 68 1024.1
20211205025945 42 81 0.0 2.0 0.00 0.00 0.00 68 1024.1
20211205025845 42 81 1.0 2.0 0.00 0.00 0.00 68 1024.1
20211205025738 43 81 1.0 2.0 0.00 0.00 0.00 68 1024.1
20211205025639 43 81 1.0 2.0 0.00 0.00 0.00 68 1024.1
20211205025538 43 81 1.0 2.0 0.00 0.00 0.00 68 1024.1
20211205025439 43 81 1.0 2.0 0.00 0.00 0.00 68 1024.1
20211205025339 43 81 1.0 2.0 0.00 0.00 0.00 68 1024.1
20211205025233 43 81 1.0 2.0 0.00 0.00 0.00 68 1024.1
20211205025134 43 81 1.0 2.0 0.00 0.00 0.00 67 1024.1
20211205025035 43 81 1.0 2.0 0.00 0.00 0.00 67 1024.1
20211205024933 43 81 1.0 2.0 0.00 0.00 0.00 67 1024.1
20211205024833 43 81 0.0 2.0 0.00 0.00 0.00 67 1024.1
20211205024727 43 81 0.0 2.0 0.00 0.00 0.00 67 1024.1
20211205024627 43 81 0.0 2.0 0.00 0.00 0.00 67 1024.0
20211205024527 44 81 0.0 2.0 0.00 0.00 0.00 67 1024.0
20211205024427 44 81 0.0 2.0 0.00 0.00 0.00 67 1024.1
20211205024327 44 81 0.0 2.0 0.00 0.00 0.00 67 1024.1
20211205024219 44 81 0.0 2.0 0.00 0.00 0.00 67 1024.1
20211205024120 44 80 0.0 1.0 0.00 0.00 0.00 67 1024.1
20211205024053 44 80 0.0 1.0 0.00 0.00 0.00 67 1024.1
20211205024021 44 80 0.0 1.0 0.00 0.00 0.00 66 1024.1
20211205023922 44 80 0.0 1.0 0.00 0.00 0.00 66 1024.1
20211205023821 44 80 0.0 1.0 0.00 0.00 0.00 66 1024.1
20211205023718 44 80 0.0 0.0 0.00 0.00 0.00 66 1024.1
20211205023618 44 80 0.0 0.0 0.00 0.00 0.00 66 1024.2
20211205023518 44 80 0.0 0.0 0.00 0.00 0.00 65 1024.2
20211205023416 44 80 0.0 0.0 0.00 0.00 0.00 65 1024.2
20211205023316 44 80 0.0 0.0 0.00 0.00 0.00 65 1024.2
20211205023207 44 80 0.0 0.0 0.00 0.00 0.00 65 1024.2
20211205023109 45 80 0.0 0.0 0.00 0.00 0.00 65 1024.2
20211205023055 45 80 0.0 0.0 0.00 0.00 0.00 65 1024.2
20211205023008 45 80 0.0 0.0 0.00 0.00 0.00 65 1024.2
20211205022909 45 80 0.0 0.0 0.00 0.00 0.00 65 1024.2
20211205022810 45 80 0.0 1.0 0.00 0.00 0.00 65 1024.2
20211205022702 45 80 0.0 1.0 0.00 0.00 0.00 64 1024.2
20211205022604 45 80 0.0 1.0 0.00 0.00 0.00 64 1024.3
20211205022504 45 80 0.0 1.0 0.00 0.00 0.00 64 1024.2
20211205022402 45 80 0.0 1.0 0.00 0.00 0.00 64 1024.2
20211205022305 45 80 0.0 1.0 0.00 0.00 0.00 64 1024.2
20211205022201 45 80 0.0 1.0 0.00 0.00 0.00 64 1024.2
20211205022055 45 80 0.0 1.0 0.00 0.00 0.00 63 1024.2
20211205022001 45 80 0.0 1.0 0.00 0.00 0.00 63 1024.2
20211205021859 46 80 0.0 1.0 0.00 0.00 0.00 63 1024.2
20211205021758 46 80 0.0 0.0 0.00 0.00 0.00 63 1024.2
20211205021649 46 80 0.0 0.0 0.00 0.00 0.00 63 1024.2
20211205021552 46 80 0.0 0.0 0.00 0.00 0.00 62 1024.3
20211205021449 46 80 0.0 0.0 0.00 0.00 0.00 62 1024.2
20211205021351 46 80 0.0 0.0 0.00 0.00 0.00 62 1024.2
20211205021252 46 80 0.0 0.0 0.00 0.00 0.00 62 1024.2
20211205021152 46 80 0.0 0.0 0.00 0.00 0.00 61 1024.2
20211205021047 46 80 0.0 0.0 0.00 0.00 0.00 61 1024.2
20211205020949 46 80 0.0 0.0 0.00 0.00 0.00 61 1024.2
20211205020847 47 80 0.0 0.0 0.00 0.00 0.00 60 1024.2
20211205020746 47 80 0.0 0.0 0.00 0.00 0.00 60 1024.2
20211205020644 47 80 0.0 0.0 0.00 0.00 0.00 59 1024.2
20211205020542 47 80 0.0 0.0 0.00 0.00 0.00 59 1024.1
20211205020440 47 80 0.0 0.0 0.00 0.00 0.00 59 1024.1
20211205020341 47 80 0.0 0.0 0.00 0.00 0.00 59 1024.1
20211205020238 47 80 0.0 0.0 0.00 0.00 0.00 58 1024.1
20211205020131 47 80 0.0 0.0 0.00 0.00 0.00 58 1024.1
20211205020032 47 80 0.0 1.0 0.00 0.00 0.00 58 1024.0
20211205015939 47 80 0.0 1.0 0.00 0.00 0.00 58 1024.0
20211205015831 47 80 0.0 1.0 0.00 0.00 0.00 57 1024.0
20211205015733 48 80 0.0 1.0 0.00 0.00 0.00 57 1024.0
20211205015630 48 80 0.0 2.0 0.00 0.00 0.00 57 1024.0
20211205015531 48 80 0.0 2.0 0.00 0.00 0.00 55 1024.0
20211205015430 48 80 0.0 2.0 0.00 0.00 0.00 55 1023.9
20211205015327 48 80 0.0 2.0 0.00 0.00 0.00 55 1023.9
20211205015226 48 80 0.0 2.0 0.00 0.00 0.00 55 1023.9
20211205015128 48 80 0.0 2.0 0.00 0.00 0.00 55 1024.0
20211205015024 48 80 0.0 2.0 0.00 0.00 0.00 54 1023.9
20211205014924 48 80 0.0 2.0 0.00 0.00 0.00 54 1024.0
20211205014824 48 80 0.0 2.0 0.00 0.00 0.00 54 1024.0
20211205014720 48 80 0.0 2.0 0.00 0.00 0.00 54 1024.0
20211205014614 49 80 0.0 1.0 0.00 0.00 0.00 54 1024.0
20211205014515 49 80 0.0 1.0 0.00 0.00 0.00 54 1024.0
20211205014414 49 80 0.0 1.0 0.00 0.00 0.00 53 1024.0
20211205014314 49 80 0.0 2.0 0.00 0.00 0.00 53 1024.0
20211205014216 49 80 0.0 2.0 0.00 0.00 0.00 53 1024.0
20211205014110 49 80 1.0 2.0 0.00 0.00 0.00 54 1024.0
20211205014046 49 80 1.0 2.0 0.00 0.00 0.00 53 1024.0
20211205014009 49 80 1.0 2.0 0.00 0.00 0.00 53 1024.0
20211205013911 49 80 1.0 2.0 0.00 0.00 0.00 53 1024.0
20211205013810 49 80 1.0 2.0 0.00 0.00 0.00 53 1024.0
20211205013709 49 80 1.0 2.0 0.00 0.00 0.00 53 1024.0
20211205013606 49 80 1.0 2.0 0.00 0.00 0.00 53 1024.0
20211205013503 49 80 1.0 2.0 0.00 0.00 0.00 53 1024.0
20211205013403 49 80 1.0 2.0 0.00 0.00 0.00 53 1024.1
20211205013303 49 80 1.0 2.0 0.00 0.00 0.00 53 1024.1
20211205013203 49 80 1.0 2.0 0.00 0.00 0.00 53 1024.1
20211205013047 49 80 1.0 2.0 0.00 0.00 0.00 53 1024.1
20211205012956 49 80 1.0 2.0 0.00 0.00 0.00 53 1024.1
20211205012856 49 80 1.0 2.0 0.00 0.00 0.00 53 1024.0
20211205012756 49 80 1.0 2.0 0.00 0.00 0.00 53 1024.1
20211205012656 49 80 1.0 2.0 0.00 0.00 0.00 53 1024.1
20211205012549 49 80 1.0 3.0 0.00 0.00 0.00 53 1024.1
20211205012451 49 80 1.0 3.0 0.00 0.00 0.00 53 1024.1
20211205012350 49 80 1.0 3.0 0.00 0.00 0.00 52 1024.1
20211205012252 49 80 1.0 3.0 0.00 0.00 0.00 52 1024.1
20211205012150 49 80 1.0 3.0 0.00 0.00 0.00 52 1024.0
20211205012048 50 80 1.0 3.0 0.00 0.00 0.00 52 1024.0
20211205011948 50 80 1.0 3.0 0.00 0.00 0.00 52 1024.0
20211205011848 50 81 1.0 3.0 0.00 0.00 0.00 52 1024.0
20211205011748 50 81 2.0 3.0 0.00 0.00 0.00 51 1024.0
20211205011646 50 81 2.0 3.0 0.00 0.00 0.00 52 1024.0
20211205011540 50 81 2.0 3.0 0.00 0.00 0.00 52 1024.0
20211205011443 50 81 2.0 3.0 0.00 0.00 0.00 51 1024.0
20211205011338 50 82 1.0 3.0 0.00 0.00 0.00 51 1024.0
20211205011238 50 83 1.0 3.0 0.00 0.00 0.00 51 1024.0
20211205011139 50 83 1.0 3.0 0.00 0.00 0.00 51 1024.0
20211205011036 50 83 1.0 3.0 0.00 0.00 0.00 51 1024.1
20211205010935 50 83 1.0 3.0 0.00 0.00 0.00 51 1024.1
20211205010837 50 71 1.0 3.0 0.00 0.00 0.00 51 1024.1
20211205010735 50 46 1.0 3.0 0.00 0.00 0.00 51 1024.1
20211205010633 50 46 1.0 3.0 0.00 0.00 0.00 51 1024.1
20211205010531 50 42 1.0 3.0 0.00 0.00 0.00 51 1024.1
20211205010430 50 42 1.0 3.0 0.00 0.00 0.00 51 1024.1
20211205010331 50 42 1.0 3.0 0.00 0.00 0.00 51 1024.1
20211205010229 50 42 1.0 3.0 0.00 0.00 0.00 50 1024.1
20211205010128 50 42 1.0 3.0 0.00 0.00 0.00 51 1024.1
20211205010019 50 42 1.0 3.0 0.00 0.00 0.00 50 1024.1
20211205005920 50 42 1.0 3.0 0.00 0.00 0.00 50 1024.1
20211205005821 50 42 1.0 3.0 0.00 0.00 0.00 50 1024.1
20211205005721 50 42 1.0 3.0 0.00 0.00 0.00 50 1024.1
20211205005621 50 42 1.0 3.0 0.00 0.00 0.00 51 1024.1
20211205005517 50 42 1.0 3.0 0.00 0.00 0.00 50 1024.0
20211205005419 51 42 2.0 3.0 0.00 0.00 0.00 50 1024.0
20211205005316 51 75 2.0 3.0 0.00 0.00 0.00 51 1024.0
20211205005219 51 75 2.0 3.0 0.00 0.00 0.00 50 1024.0
20211205005114 51 75 2.0 4.0 0.00 0.00 0.00 51 1024.0
20211205005047 51 75 2.0 4.0 0.00 0.00 0.00 51 1024.0
20211205005014 51 75 2.0 4.0 0.00 0.00 0.00 51 1024.0
20211205004913 51 75 2.0 4.0 0.00 0.00 0.00 51 1024.0
20211205004810 51 75 2.0 4.0 0.00 0.00 0.00 50 1023.9
20211205004711 51 75 2.0 4.0 0.00 0.00 0.00 50 1023.9
20211205004609 51 75 2.0 4.0 0.00 0.00 0.00 50 1023.9
20211205004502 51 75 2.0 4.0 0.00 0.00 0.00 50 1023.9
20211205004403 51 75 2.0 4.0 0.00 0.00 0.00 50 1023.9
20211205004301 51 75 2.0 4.0 0.00 0.00 0.00 50 1023.9
20211205004201 51 65 2.0 4.0 0.00 0.00 0.00 50 1023.9
20211205004104 51 63 2.0 4.0 0.00 0.00 0.00 50 1023.9
20211205004047 51 50 2.0 4.0 0.00 0.00 0.00 50 1023.9
20211205003956 51 74 2.0 4.0 0.00 0.00 0.00 50 1023.9
20211205003856 51 75 2.0 4.0 0.00 0.00 0.00 50 1023.9
20211205003756 51 79 2.0 4.0 0.00 0.00 0.00 50 1023.9
20211205003700 51 79 2.0 4.0 0.00 0.00 0.00 51 1023.9
20211205003557 51 72 2.0 4.0 0.00 0.00 0.00 50 1023.8
20211205003453 51 63 2.0 4.0 0.00 0.00 0.00 50 1023.9
20211205003353 51 62 2.0 4.0 0.00 0.00 0.00 50 1023.9
20211205003252 51 61 2.0 5.0 0.00 0.00 0.00 51 1023.9
20211205003153 51 42 2.0 5.0 0.00 0.00 0.00 51 1023.9
20211205003049 51 64 2.0 5.0 0.00 0.00 0.00 51 1023.9
20211205002944 51 65 2.0 5.0 0.00 0.00 0.00 50 1023.9
20211205002845 51 50 2.0 5.0 0.00 0.00 0.00 51 1023.9
20211205002744 51 50 2.0 5.0 0.00 0.00 0.00 51 1023.9
20211205002644 51 50 2.0 5.0 0.00 0.00 0.00 51 1023.9
20211205002545 51 50 2.0 5.0 0.00 0.00 0.00 51 1023.9
20211205002439 51 50 2.0 5.0 0.00 0.00 0.00 50 1023.8
20211205002337 51 59 2.0 5.0 0.00 0.00 0.00 50 1023.9
20211205002238 51 48 2.0 4.0 0.00 0.00 0.00 51 1023.9
20211205002139 51 48 2.0 4.0 0.00 0.00 0.00 51 1023.9
20211205002040 51 55 2.0 3.0 0.00 0.00 0.00 51 1023.9
20211205001935 51 55 2.0 3.0 0.00 0.00 0.00 51 1023.8
20211205001831 51 65 2.0 3.0 0.00 0.00 0.00 51 1023.8
20211205001733 51 65 2.0 4.0 0.00 0.00 0.00 51 1023.8
20211205001632 51 53 2.0 4.0 0.00 0.00 0.00 50 1023.9
20211205001533 51 56 2.0 4.0 0.00 0.00 0.00 50 1023.9
20211205001426 51 56 2.0 4.0 0.00 0.00 0.00 51 1023.9
20211205001327 51 56 2.0 4.0 0.00 0.00 0.00 50 1023.8
20211205001227 51 56 2.0 4.0 0.00 0.00 0.00 50 1023.9
20211205001126 51 56 2.0 4.0 0.00 0.00 0.00 50 1023.8
20211205001027 51 56 2.0 4.0 0.00 0.00 0.00 50 1023.8
20211205000921 51 67 2.0 4.0 0.00 0.00 0.00 50 1023.9
20211205000820 51 71 1.0 4.0 0.00 0.00 0.00 50 1023.7
20211205000719 51 65 1.0 4.0 0.00 0.00 0.00 50 1023.7
20211205000621 51 42 1.0 3.0 0.00 0.00 0.00 50 1023.7
20211205000521 52 42 1.0 3.0 0.00 0.00 0.00 50 1023.7
20211205000418 52 42 1.0 3.0 0.00 0.00 0.00 50 1023.7
20211205000314 52 42 0.0 3.0 0.00 0.00 0.00 50 1023.7
20211205000215 52 42 0.0 2.0 0.00 0.00 0.00 50 1023.7
20211205000115 52 61 0.0 2.0 0.00 0.00 0.00 50 1023.7
20211205000044 52 61 0.0 2.0 0.00 0.00 0.00 50 1023.7
20211205000014 52 61 0.0 2.0 0.00 0.00 0.00 50 1023.6
20211204235910 52 61 0.0 2.0 0.00 0.00 0.00 49 1023.6
20211204235809 52 61 0.0 2.0 0.00 0.00 0.00 49 1023.6
20211204235708 52 61 1.0 2.0 0.00 0.00 0.00 49 1023.6
20211204235609 52 61 1.0 2.0 0.00 0.00 0.00 49 1023.5
20211204235508 52 61 1.0 2.0 0.00 0.00 0.00 49 1023.6
20211204235402 52 61 1.0 2.0 0.00 0.00 0.00 49 1023.6
20211204235305 52 61 1.0 2.0 0.00 0.00 0.00 48 1023.5
20211204235203 52 61 1.0 2.0 0.00 0.00 0.00 48 1023.4
20211204235045 53 61 1.0 2.0 0.00 0.00 0.00 48 1023.5
20211204235003 53 61 1.0 2.0 0.00 0.00 0.00 48 1023.5
20211204234900 53 61 1.0 2.0 0.00 0.00 0.00 48 1023.5
20211204234757 53 61 1.0 2.0 0.00 0.00 0.00 48 1023.5
20211204234658 53 61 1.0 2.0 0.00 0.00 0.00 48 1023.5
20211204234556 53 61 1.0 2.0 0.00 0.00 0.00 48 1023.5
20211204234458 53 61 1.0 2.0 0.00 0.00 0.00 48 1023.4
20211204234350 53 61 1.0 2.0 0.00 0.00 0.00 47 1023.4
20211204234251 53 61 1.0 2.0 0.00 0.00 0.00 47 1023.4
20211204234150 53 61 1.0 2.0 0.00 0.00 0.00 47 1023.4
20211204234044 53 61 1.0 2.0 0.00 0.00 0.00 47 1023.4
20211204233951 53 61 0.0 2.0 0.00 0.00 0.00 47 1023.4
20211204233849 53 61 0.0 2.0 0.00 0.00 0.00 47 1023.4
20211204233748 54 61 0.0 2.0 0.00 0.00 0.00 47 1023.4
20211204233649 54 61 0.0 2.0 0.00 0.00 0.00 47 1023.4
20211204233545 54 61 0.0 1.0 0.00 0.00 0.00 47 1023.4
20211204233445 54 61 0.0 1.0 0.00 0.00 0.00 47 1023.4
20211204233342 54 61 0.0 1.0 0.00 0.00 0.00 47 1023.4
20211204233238 54 61 0.0 1.0 0.00 0.00 0.00 46 1023.3
20211204233140 54 61 0.0 1.0 0.00 0.00 0.00 46 1023.4
20211204233039 54 61 0.0 1.0 0.00 0.00 0.00 46 1023.3
20211204232939 54 61 1.0 1.0 0.00 0.00 0.00 46 1023.3
20211204232832 54 61 1.0 1.0 0.00 0.00 0.00 46 1023.3
20211204232732 54 61 1.0 2.0 0.00 0.00 0.00 46 1023.3
20211204232632 54 61 1.0 2.0 0.00 0.00 0.00 46 1023.2
20211204232532 54 61 1.0 2.0 0.00 0.00 0.00 46 1023.3
20211204232433 54 61 1.0 2.0 0.00 0.00 0.00 46 1023.3
20211204232333 54 61 1.0 2.0 0.00 0.00 0.00 46 1023.2
20211204232230 54 61 1.0 3.0 0.00 0.00 0.00 46 1023.2
20211204232130 54 61 1.0 3.0 0.00 0.00 0.00 46 1023.2
20211204232028 54 61 1.0 3.0 0.00 0.00 0.00 46 1023.3
20211204231927 54 61 1.0 3.0 0.00 0.00 0.00 46 1023.2
20211204231821 55 61 2.0 4.0 0.00 0.00 0.00 45 1023.2
20211204231720 55 61 2.0 4.0 0.00 0.00 0.00 45 1023.1
20211204231621 55 61 2.0 4.0 0.00 0.00 0.00 45 1023.2
20211204231520 55 61 2.0 4.0 0.00 0.00 0.00 45 1023.2
20211204231420 55 61 2.0 4.0 0.00 0.00 0.00 45 1023.2
20211204231314 55 61 2.0 4.0 0.00 0.00 0.00 45 1023.2
20211204231214 55 61 2.0 4.0 0.00 0.00 0.00 45 1023.2
20211204231114 55 60 2.0 4.0 0.00 0.00 0.00 45 1023.2
20211204231045 55 60 2.0 4.0 0.00 0.00 0.00 45 1023.2
20211204231013 55 60 2.0 4.0 0.00 0.00 0.00 45 1023.2
20211204230915 55 60 2.0 4.0 0.00 0.00 0.00 45 1023.2
20211204230811 55 71 2.0 4.0 0.00 0.00 0.00 44 1023.2
20211204230712 55 74 2.0 3.0 0.00 0.00 0.00 45 1023.1
20211204230612 55 74 2.0 4.0 0.00 0.00 0.00 45 1023.1
20211204230511 55 74 2.0 4.0 0.00 0.00 0.00 45 1023.1
20211204230409 55 74 2.0 4.0 0.00 0.00 0.00 45 1023.1
20211204230305 55 74 2.0 4.0 0.00 0.00 0.00 44 1023.1
20211204230202 55 74 2.0 4.0 0.00 0.00 0.00 44 1023.1
20211204230045 55 74 2.0 4.0 0.00 0.00 0.00 45 1023.1
20211204230000 55 74 2.0 4.0 0.00 0.00 0.00 45 1023.1
20211204225901 55 70 2.0 4.0 0.00 0.00 0.00 44 1023.1
20211204225758 55 70 2.0 4.0 0.00 0.00 0.00 45 1023.2
20211204225658 55 70 2.0 4.0 0.00 0.00 0.00 44 1023.2
20211204225558 55 70 2.0 4.0 0.00 0.00 0.00 45 1023.2
20211204225456 55 70 2.0 4.0 0.00 0.00 0.00 44 1023.2
20211204225354 55 69 2.0 4.0 0.00 0.00 0.00 44 1023.3
20211204225248 55 71 2.0 4.0 0.00 0.00 0.00 44 1023.2
20211204225149 55 71 2.0 4.0 0.00 0.00 0.00 44 1023.3
20211204225047 55 42 2.0 4.0 0.00 0.00 0.00 44 1023.2
20211204224948 55 42 2.0 4.0 0.00 0.00 0.00 44 1023.2
20211204224849 55 57 2.0 4.0 0.00 0.00 0.00 44 1023.3
20211204224745 55 71 2.0 4.0 0.00 0.00 0.00 44 1023.3
20211204224642 55 79 2.0 4.0 0.00 0.00 0.00 44 1023.2
20211204224542 55 86 2.0 4.0 0.00 0.00 0.00 43 1023.2
20211204224444 55 86 2.0 4.0 0.00 0.00 0.00 44 1023.2
20211204224342 56 59 2.0 4.0 0.00 0.00 0.00 43 1023.2
20211204224236 56 59 2.0 4.0 0.00 0.00 0.00 43 1023.1
20211204224135 56 59 2.0 4.0 0.00 0.00 0.00 43 1023.1
20211204224037 56 53 2.0 4.0 0.00 0.00 0.00 43 1023.1
20211204223936 56 79 2.0 4.0 0.00 0.00 0.00 43 1023.1
20211204223836 56 60 2.0 3.0 0.00 0.00 0.00 43 1023.1
20211204223731 56 60 2.0 3.0 0.00 0.00 0.00 43 1023.1
20211204223631 56 60 2.0 3.0 0.00 0.00 0.00 42 1023.0
20211204223529 56 76 2.0 3.0 0.00 0.00 0.00 43 1023.1
20211204223430 56 82 2.0 3.0 0.00 0.00 0.00 43 1023.1
20211204223332 56 82 2.0 3.0 0.00 0.00 0.00 42 1023.1
20211204223226 56 82 2.0 3.0 0.00 0.00 0.00 42 1023.1
20211204223124 56 82 2.0 3.0 0.00 0.00 0.00 43 1023.0
20211204223025 56 82 2.0 3.0 0.00 0.00 0.00 43 1023.0
20211204222925 56 82 2.0 3.0 0.00 0.00 0.00 43 1023.0
20211204222824 56 82 2.0 3.0 0.00 0.00 0.00 43 1023.0
20211204222725 56 82 2.0 3.0 0.00 0.00 0.00 43 1023.0
20211204222622 56 82 2.0 3.0 0.00 0.00 0.00 43 1023.0
20211204222522 56 82 2.0 3.0 0.00 0.00 0.00 43 1023.0
20211204222422 56 82 2.0 3.0 0.00 0.00 0.00 43 1023.0
20211204222319 56 82 2.0 3.0 0.00 0.00 0.00 43 1023.0
20211204222212 56 82 2.0 3.0 0.00 0.00 0.00 43 1023.0
20211204222114 56 82 2.0 3.0 0.00 0.00 0.00 43 1023.0
20211204222045 56 82 2.0 5.0 0.00 0.00 0.00 43 1023.0
20211204222011 57 82 2.0 5.0 0.00 0.00 0.00 43 1023.0
20211204221914 57 82 2.0 5.0 0.00 0.00 0.00 42 1022.9
20211204221813 57 83 2.0 5.0 0.00 0.00 0.00 43 1023.0
20211204221707 57 81 3.0 5.0 0.00 0.00 0.00 43 1022.9
20211204221609 57 86 3.0 5.0 0.00 0.00 0.00 43 1022.9
20211204221508 57 86 3.0 5.0 0.00 0.00 0.00 42 1022.9
20211204221409 57 86 3.0 5.0 0.00 0.00 0.00 42 1022.9
20211204221307 57 86 3.0 5.0 0.00 0.00 0.00 42 1022.9
20211204221204 57 88 3.0 5.0 0.00 0.00 0.00 42 1022.9
20211204221105 57 100 3.0 5.0 0.00 0.00 0.00 42 1022.8
20211204221046 57 75 3.0 5.0 0.00 0.00 0.00 42 1022.8
20211204221004 57 66 3.0 5.0 0.00 0.00 0.00 42 1022.9
20211204220902 57 79 3.0 5.0 0.00 0.00 0.00 42 1022.8
20211204220801 57 79 3.0 6.0 0.00 0.00 0.00 42 1022.8
20211204220656 57 61 3.0 6.0 0.00 0.00 0.00 41 1022.8
20211204220555 57 81 3.0 6.0 0.00 0.00 0.00 42 1022.8
20211204220454 57 97 3.0 6.0 0.00 0.00 0.00 41 1022.8
20211204220354 57 53 3.0 6.0 0.00 0.00 0.00 42 1022.8
20211204220255 57 42 2.0 6.0 0.00 0.00 0.00 42 1022.8
20211204220155 57 85 3.0 6.0 0.00 0.00 0.00 42 1022.7
20211204220044 57 86 3.0 6.0 0.00 0.00 0.00 42 1022.7
20211204215949 57 75 3.0 6.0 0.00 0.00 0.00 42 1022.7
20211204215851 57 95 3.0 6.0 0.00 0.00 0.00 42 1022.7
20211204215749 57 87 3.0 4.0 0.00 0.00 0.00 42 1022.6
20211204215643 57 77 3.0 4.0 0.00 0.00 0.00 42 1022.6
20211204215542 57 76 3.0 5.0 0.00 0.00 0.00 42 1022.6
20211204215443 57 76 3.0 5.0 0.00 0.00 0.00 42 1022.6
20211204215343 57 69 3.0 5.0 0.00 0.00 0.00 42 1022.6
20211204215243 57 65 3.0 5.0 0.00 0.00 0.00 42 1022.6
20211204215140 57 78 3.0 5.0 0.00 0.00 0.00 42 1022.5
20211204215039 57 76 3.0 5.0 0.00 0.00 0.00 42 1022.5
20211204214940 57 60 3.0 5.0 0.00 0.00 0.00 42 1022.5
20211204214839 57 63 3.0 5.0 0.00 0.00 0.00 42 1022.4
20211204214738 57 92 3.0 5.0 0.00 0.00 0.00 42 1022.4
20211204214630 58 85 3.0 5.0 0.00 0.00 0.00 42 1022.5
20211204214531 58 81 2.0 5.0 0.00 0.00 0.00 42 1022.4
20211204214436 58 69 2.0 5.0 0.00 0.00 0.00 43 1022.4
20211204214331 58 72 2.0 4.0 0.00 0.00 0.00 43 1022.4
20211204214231 58 84 2.0 4.0 0.00 0.00 0.00 42 1022.4
20211204214131 58 84 2.0 4.0 0.00 0.00 0.00 42 1022.3
20211204214028 58 85 3.0 4.0 0.00 0.00 0.00 42 1022.4
20211204213928 58 84 3.0 4.0 0.00 0.00 0.00 42 1022.3
20211204213827 58 84 3.0 4.0 0.00 0.00 0.00 42 1022.3
20211204213725 58 87 3.0 4.0 0.00 0.00 0.00 42 1022.4
20211204213622 58 83 3.0 4.0 0.00 0.00 0.00 42 1022.4
20211204213523 58 83 3.0 5.0 0.00 0.00 0.00 42 1022.4
20211204213421 58 83 3.0 5.0 0.00 0.00 0.00 43 1022.4
20211204213322 58 92 3.0 5.0 0.00 0.00 0.00 42 1022.4
20211204213218 58 94 3.0 5.0 0.00 0.00 0.00 42 1022.4
20211204213111 58 90 3.0 5.0 0.00 0.00 0.00 42 1022.4
20211204213040 58 83 3.0 5.0 0.00 0.00 0.00 43 1022.4
20211204213013 58 88 3.0 5.0 0.00 0.00 0.00 43 1022.4
20211204212913 58 78 3.0 5.0 0.00 0.00 0.00 43 1022.4
20211204212813 58 108 3.0 5.0 0.00 0.00 0.00 43 1022.4
20211204212713 58 76 3.0 5.0 0.00 0.00 0.00 42 1022.4
20211204212605 58 59 3.0 5.0 0.00 0.00 0.00 42 1022.4
20211204212507 58 92 3.0 5.0 0.00 0.00 0.00 42 1022.4
20211204212407 58 88 3.0 5.0 0.00 0.00 0.00 42 1022.4
20211204212306 58 104 3.0 5.0 0.00 0.00 0.00 43 1022.4
20211204212208 58 88 3.0 5.0 0.00 0.00 0.00 42 1022.4
20211204212103 58 81 3.0 5.0 0.00 0.00 0.00 43 1022.4
20211204212040 58 90 3.0 5.0 0.00 0.00 0.00 43 1022.4
20211204211959 58 88 2.0 5.0 0.00 0.00 0.00 43 1022.4
20211204211900 58 84 2.0 4.0 0.00 0.00 0.00 42 1022.4
20211204211801 58 84 2.0 4.0 0.00 0.00 0.00 42 1022.4
20211204211702 58 84 2.0 4.0 0.00 0.00 0.00 42 1022.4
20211204211553 58 96 2.0 4.0 0.00 0.00 0.00 42 1022.4
20211204211454 58 102 2.0 4.0 0.00 0.00 0.00 42 1022.3
20211204211354 58 100 2.0 4.0 0.00 0.00 0.00 42 1022.3
20211204211254 58 87 2.0 6.0 0.00 0.00 0.00 42 1022.3
20211204211155 58 86 2.0 6.0 0.00 0.00 0.00 43 1022.2
20211204211055 58 87 2.0 6.0 0.00 0.00 0.00 43 1022.2
20211204211041 58 86 2.0 6.0 0.00 0.00 0.00 43 1022.2
20211204210952 58 86 3.0 6.0 0.00 0.00 0.00 42 1022.3
20211204210852 58 86 3.0 6.0 0.00 0.00 0.00 42 1022.2
20211204210752 58 86 3.0 6.0 0.00 0.00 0.00 42 1022.2
20211204210648 58 86 4.0 6.0 0.00 0.00 0.00 42 1022.2
20211204210545 58 87 4.0 6.0 0.00 0.00 0.00 41 1022.2
20211204210444 58 81 4.0 6.0 0.00 0.00 0.00 41 1022.2
20211204210343 58 76 4.0 9.0 0.00 0.00 0.00 42 1022.2
20211204210242 58 86 4.0 9.0 0.00 0.00 0.00 42 1022.2
20211204210142 58 86 4.0 9.0 0.00 0.00 0.00 41 1022.2
20211204210041 58 56 4.0 9.0 0.00 0.00 0.00 41 1022.2
20211204210035 58 55 4.0 9.0 0.00 0.00 0.00 41 1022.2
20211204205937 58 75 4.0 9.0 0.00 0.00 0.00 41 1022.2
20211204205838 58 54 4.0 9.0 0.00 0.00 0.00 42 1022.2
20211204205737 58 72 4.0 9.0 0.00 0.00 0.00 42 1022.2
20211204205637 58 56 4.0 9.0 0.00 0.00 0.00 41 1022.2
20211204205532 58 65 4.0 9.0 0.00 0.00 0.00 41 1022.2
20211204205432 58 69 4.0 9.0 0.00 0.00 0.00 41 1022.2
20211204205331 58 73 3.0 7.0 0.00 0.00 0.00 42 1022.2
20211204205232 58 90 3.0 6.0 0.00 0.00 0.00 41 1022.1
20211204205131 58 104 3.0 6.0 0.00 0.00 0.00 41 1022.0
20211204205038 58 145 3.0 6.0 0.00 0.00 0.00 41 1022.0
20211204205027 58 192 3.0 6.0 0.00 0.00 0.00 41 1022.0
20211204204925 58 121 3.0 6.0 0.00 0.00 0.00 40 1022.0
20211204204824 58 97 3.0 6.0 0.00 0.00 0.00 40 1022.0
20211204204724 58 123 3.0 6.0 0.00 0.00 0.00 40 1022.1
20211204204625 58 75 3.0 9.0 0.00 0.00 0.00 42 1022.1
20211204204524 58 61 3.0 9.0 0.00 0.00 0.00 42 1022.1
20211204204433 58 80 3.0 9.0 0.00 0.00 0.00 41 1022.0
20211204204324 58 79 3.0 9.0 0.00 0.00 0.00 41 1022.0
20211204204224 58 54 3.0 9.0 0.00 0.00 0.00 41 1022.0
20211204204124 58 61 3.0 9.0 0.00 0.00 0.00 42 1022.0
20211204204040 58 65 3.0 9.0 0.00 0.00 0.00 41 1022.0
20211204204025 58 106 3.0 9.0 0.00 0.00 0.00 40 1022.0
20211204203924 58 106 3.0 9.0 0.00 0.00 0.00 40 1022.0
20211204203825 58 105 3.0 9.0 0.00 0.00 0.00 41 1022.0
20211204203723 59 84 3.0 9.0 0.00 0.00 0.00 41 1022.0
20211204203623 59 52 3.0 7.0 0.00 0.00 0.00 41 1022.0
20211204203522 59 67 3.0 5.0 0.00 0.00 0.00 43 1022.0
20211204203422 58 87 3.0 5.0 0.00 0.00 0.00 42 1022.0
20211204203321 58 81 3.0 5.0 0.00 0.00 0.00 42 1022.0
20211204203223 58 81 3.0 5.0 0.00 0.00 0.00 43 1022.0
20211204203123 58 88 3.0 5.0 0.00 0.00 0.00 42 1022.0
20211204203037 59 89 3.0 5.0 0.00 0.00 0.00 42 1022.0
20211204203023 59 81 3.0 5.0 0.00 0.00 0.00 42 1022.0
20211204202922 58 42 3.0 5.0 0.00 0.00 0.00 43 1022.0
20211204202815 58 75 3.0 5.0 0.00 0.00 0.00 42 1022.1
20211204202715 58 48 3.0 5.0 0.00 0.00 0.00 42 1022.0
20211204202617 58 50 3.0 5.0 0.00 0.00 0.00 42 1022.0
20211204202517 58 90 3.0 5.0 0.00 0.00 0.00 43 1022.0
20211204202417 58 90 3.0 6.0 0.00 0.00 0.00 42 1022.1
20211204202309 58 94 3.0 7.0 0.00 0.00 0.00 42 1022.1
20211204202212 58 94 4.0 7.0 0.00 0.00 0.00 42 1022.1
20211204202112 58 102 4.0 7.0 0.00 0.00 0.00 43 1022.1
20211204202038 58 100 4.0 7.0 0.00 0.00 0.00 43 1022.1
20211204202013 58 101 4.0 7.0 0.00 0.00 0.00 43 1022.2
20211204201911 58 95 4.0 7.0 0.00 0.00 0.00 42 1022.1
20211204201810 58 121 4.0 7.0 0.00 0.00 0.00 42 1022.1
20211204201709 58 120 4.0 7.0 0.00 0.00 0.00 42 1022.2
20211204201607 58 81 3.0 7.0 0.00 0.00 0.00 42 1022.1
20211204201508 58 102 3.0 7.0 0.00 0.00 0.00 41 1022.1
20211204201408 58 88 3.0 7.0 0.00 0.00 0.00 41 1022.1
20211204201307 59 117 3.0 6.0 0.00 0.00 0.00 41 1022.1
20211204201208 59 92 3.0 6.0 0.00 0.00 0.00 40 1022.2
20211204201107 59 113 3.0 7.0 0.00 0.00 0.00 42 1022.2
20211204201037 59 88 3.0 7.0 0.00 0.00 0.00 42 1022.2
20211204201007 59 102 4.0 7.0 0.00 0.00 0.00 43 1022.2
20211204200908 59 86 4.0 7.0 0.00 0.00 0.00 44 1022.2
20211204200808 59 86 4.0 7.0 0.00 0.00 0.00 42 1022.2
20211204200706 59 90 4.0 7.0 0.00 0.00 0.00 45 1022.2
20211204200607 58 60 4.0 7.0 0.00 0.00 0.00 44 1022.2
20211204200505 58 50 5.0 7.0 0.00 0.00 0.00 44 1022.3
20211204200406 58 76 4.0 9.0 0.00 0.00 0.00 44 1022.2
20211204200307 58 84 4.0 9.0 0.00 0.00 0.00 43 1022.2
20211204200206 58 77 4.0 9.0 0.00 0.00 0.00 42 1022.2
20211204200101 58 87 4.0 9.0 0.00 0.00 0.00 43 1022.2
20211204200037 58 88 4.0 9.0 0.00 0.00 0.00 43 1022.2
20211204200000 59 92 4.0 9.0 0.00 0.00 0.00 42 1022.2
20211204195900 59 86 4.0 9.0 0.00 0.00 0.00 42 1022.2
20211204195759 59 96 4.0 9.0 0.00 0.00 0.00 42 1022.2
20211204195659 59 109 4.0 9.0 0.00 0.00 0.00 43 1022.2
20211204195601 59 75 3.0 9.0 0.00 0.00 0.00 43 1022.2
20211204195502 59 68 3.0 9.0 0.00 0.00 0.00 46 1022.2
20211204195400 58 61 3.0 7.0 0.00 0.00 0.00 45 1022.2
20211204195305 59 90 3.0 7.0 0.00 0.00 0.00 46 1022.3
20211204195159 58 81 3.0 7.0 0.00 0.00 0.00 46 1022.2
20211204195100 58 84 3.0 9.0 0.00 0.00 0.00 46 1022.2
20211204195037 58 75 3.0 9.0 0.00 0.00 0.00 45 1022.2
20211204195001 58 68 3.0 9.0 0.00 0.00 0.00 45 1022.3
20211204194900 58 61 4.0 9.0 0.00 0.00 0.00 46 1022.3
20211204194802 58 71 4.0 9.0 0.00 0.00 0.00 45 1022.3
20211204194659 58 77 4.0 9.0 0.00 0.00 0.00 45 1022.3
20211204194600 58 96 4.0 9.0 0.00 0.00 0.00 45 1022.3
20211204194500 58 74 4.0 9.0 0.00 0.00 0.00 46 1022.3
20211204194403 58 71 4.0 9.0 0.00 0.00 0.00 45 1022.2
20211204194300 58 73 4.0 9.0 0.00 0.00 0.00 44 1022.2
20211204194201 58 83 3.0 9.0 0.00 0.00 0.00 45 1022.2
20211204194100 58 71 3.0 9.0 0.00 0.00 0.00 45 1022.1
20211204194036 58 67 3.0 9.0 0.00 0.00 0.00 45 1022.1
20211204194000 58 121 3.0 9.0 0.00 0.00 0.00 43 1022.1
20211204193859 59 120 3.0 9.0 0.00 0.00 0.00 44 1022.1
20211204193759 59 113 3.0 8.0 0.00 0.00 0.00 46 1022.1
20211204193701 59 61 3.0 9.0 0.00 0.00 0.00 46 1022.1
20211204193600 59 64 3.0 9.0 0.00 0.00 0.00 46 1022.1
20211204193459 59 85 3.0 9.0 0.00 0.00 0.00 46 1022.1
20211204193401 59 64 3.0 9.0 0.00 0.00 0.00 48 1022.1
20211204193302 59 80 3.0 9.0 0.00 0.00 0.00 47 1022.1
20211204193201 58 79 3.0 9.0 0.00 0.00 0.00 46 1022.1
20211204193057 58 91 4.0 9.0 0.00 0.00 0.00 46 1022.0
20211204193037 58 78 4.0 9.0 0.00 0.00 0.00 46 1022.0
20211204193000 58 64 4.0 9.0 0.00 0.00 0.00 46 1022.1
20211204192858 58 71 4.0 9.0 0.00 0.00 0.00 45 1022.1
20211204192756 58 65 4.0 9.0 0.00 0.00 0.00 46 1022.1
20211204192650 58 70 4.0 8.0 0.00 0.00 0.00 45 1022.0
20211204192549 58 56 4.0 8.0 0.00 0.00 0.00 46 1022.1
20211204192448 58 57 4.0 8.0 0.00 0.00 0.00 46 1022.1
20211204192348 58 42 4.0 8.0 0.00 0.00 0.00 46 1022.1
20211204192249 58 70 4.0 8.0 0.00 0.00 0.00 46 1022.1
20211204192142 58 86 4.0 8.0 0.00 0.00 0.00 47 1022.1
20211204192037 58 83 4.0 8.0 0.00 0.00 0.00 47 1022.1
20211204191943 58 57 4.0 8.0 0.00 0.00 0.00 46 1022.1
20211204191844 58 21 4.0 8.0 0.00 0.00 0.00 47 1022.1
20211204191743 58 15 3.0 6.0 0.00 0.00 0.00 47 1022.1
20211204191639 58 83 3.0 6.0 0.00 0.00 0.00 46 1022.1
20211204191536 58 46 3.0 6.0 0.00 0.00 0.00 47 1022.1
20211204191442 58 85 3.0 6.0 0.00 0.00 0.00 47 1022.2
20211204191334 58 86 3.0 6.0 0.00 0.00 0.00 47 1022.2
20211204191235 58 71 3.0 8.0 0.00 0.00 0.00 47 1022.3
20211204191128 58 58 4.0 8.0 0.00 0.00 0.00 47 1022.3
20211204191038 59 52 3.0 8.0 0.00 0.00 0.00 47 1022.3
20211204191029 59 42 3.0 8.0 0.00 0.00 0.00 47 1022.3
20211204190929 58 24 3.0 8.0 0.00 0.00 0.00 48 1022.3
20211204190827 58 75 3.0 8.0 0.00 0.00 0.00 47 1022.3
20211204190729 58 28 4.0 8.0 0.00 0.00 0.00 47 1022.2
20211204190621 58 23 4.0 8.0 0.00 0.00 0.00 46 1022.3
20211204190522 58 46 4.0 8.0 0.00 0.00 0.00 47 1022.3
20211204190421 58 63 4.0 10.0 0.00 0.00 0.00 46 1022.3
20211204190324 58 74 4.0 10.0 0.00 0.00 0.00 47 1022.3
20211204190220 58 88 4.0 10.0 0.00 0.00 0.00 46 1022.4
20211204190116 58 54 4.0 10.0 0.00 0.00 0.00 47 1022.4
20211204190037 58 70 4.0 10.0 0.00 0.00 0.00 47 1022.4
20211204190014 58 70 4.0 10.0 0.00 0.00 0.00 48 1022.4
20211204185914 58 42 4.0 10.0 0.00 0.00 0.00 47 1022.4
20211204185815 58 50 4.0 10.0 0.00 0.00 0.00 48 1022.4
20211204185716 58 77 4.0 10.0 0.00 0.00 0.00 48 1022.4
20211204185610 58 83 4.0 10.0 0.00 0.00 0.00 46 1022.3
20211204185510 59 56 4.0 10.0 0.00 0.00 0.00 47 1022.3
20211204185409 59 49 4.0 10.0 0.00 0.00 0.00 46 1022.4
20211204185310 58 73 4.0 10.0 0.00 0.00 0.00 47 1022.4
20211204185209 59 67 4.0 10.0 0.00 0.00 0.00 46 1022.3
20211204185111 59 79 4.0 10.0 0.00 0.00 0.00 47 1022.3
20211204185036 59 71 4.0 10.0 0.00 0.00 0.00 45 1022.3
20211204185011 59 357 4.0 10.0 0.00 0.00 0.00 47 1022.4
20211204184911 59 54 5.0 10.0 0.00 0.00 0.00 48 1022.4
20211204184808 59 37 5.0 10.0 0.00 0.00 0.00 46 1022.5
20211204184706 59 32 5.0 10.0 0.00 0.00 0.00 47 1022.5
20211204184605 58 56 5.0 10.0 0.00 0.00 0.00 47 1022.4
20211204184507 58 37 5.0 9.0 0.00 0.00 0.00 48 1022.4
20211204184406 58 19 5.0 10.0 0.00 0.00 0.00 46 1022.5
20211204184305 58 67 5.0 10.0 0.00 0.00 0.00 47 1022.5
20211204184205 58 84 5.0 10.0 0.00 0.00 0.00 47 1022.5
20211204184105 59 93 5.0 10.0 0.00 0.00 0.00 46 1022.5
20211204184037 59 94 5.0 10.0 0.00 0.00 0.00 46 1022.5
20211204184009 59 79 5.0 10.0 0.00 0.00 0.00 46 1022.5
20211204183907 58 75 5.0 10.0 0.00 0.00 0.00 47 1022.5
20211204183807 58 70 5.0 10.0 0.00 0.00 0.00 48 1022.5
20211204183706 58 79 5.0 10.0 0.00 0.00 0.00 47 1022.5
20211204183608 58 96 6.0 10.0 0.00 0.00 0.00 47 1022.5
20211204183507 58 73 5.0 10.0 0.00 0.00 0.00 46 1022.5
20211204183401 58 104 5.0 10.0 0.00 0.00 0.00 47 1022.5
20211204183301 58 77 5.0 10.0 0.00 0.00 0.00 46 1022.5
20211204183202 58 92 5.0 10.0 0.00 0.00 0.00 47 1022.5
20211204183100 58 96 5.0 10.0 0.00 0.00 0.00 49 1022.5
20211204183037 58 86 5.0 10.0 0.00 0.00 0.00 49 1022.5
20211204183001 58 66 5.0 10.0 0.00 0.00 0.00 47 1022.5
20211204182855 58 81 5.0 10.0 0.00 0.00 0.00 47 1022.5
20211204182756 58 48 5.0 10.0 0.00 0.00 0.00 47 1022.6
20211204182655 58 92 5.0 9.0 0.00 0.00 0.00 46 1022.5
20211204182555 58 76 5.0 10.0 0.00 0.00 0.00 47 1022.6
20211204182454 58 64 5.0 10.0 0.00 0.00 0.00 48 1022.6
20211204182352 58 77 5.0 10.0 0.00 0.00 0.00 48 1022.6
20211204182253 58 13 5.0 10.0 0.00 0.00 0.00 48 1022.6
20211204182152 58 73 5.0 10.0 0.00 0.00 0.00 47 1022.6
20211204182051 58 71 5.0 10.0 0.00 0.00 0.00 49 1022.6
20211204182038 58 67 5.0 10.0 0.00 0.00 0.00 49 1022.6
20211204181952 58 73 5.0 10.0 0.00 0.00 0.00 47 1022.6
20211204181852 58 42 5.0 10.0 0.00 0.00 0.00 47 1022.6
20211204181751 58 48 4.0 10.0 0.00 0.00 0.00 47 1022.6
20211204181652 58 81 4.0 10.0 0.00 0.00 0.00 48 1022.6
20211204181552 58 50 4.0 10.0 0.00 0.00 0.00 48 1022.6
20211204181451 58 42 4.0 10.0 0.00 0.00 0.00 48 1022.6
20211204181352 58 79 4.0 10.0 0.00 0.00 0.00 48 1022.6
20211204181253 58 63 4.0 10.0 0.00 0.00 0.00 48 1022.6
20211204181153 58 59 4.0 10.0 0.00 0.00 0.00 50 1022.6
20211204181052 58 77 4.0 10.0 0.00 0.00 0.00 48 1022.6
20211204181036 58 61 4.0 10.0 0.00 0.00 0.00 48 1022.6
20211204180952 58 57 4.0 10.0 0.00 0.00 0.00 48 1022.6
20211204180853 58 77 4.0 10.0 0.00 0.00 0.00 49 1022.6
20211204180754 58 86 4.0 10.0 0.00 0.00 0.00 50 1022.6
20211204180647 58 58 5.0 10.0 0.00 0.00 0.00 50 1022.6
20211204180549 58 65 5.0 11.0 0.00 0.00 0.00 49 1022.6
20211204180447 58 46 5.0 11.0 0.00 0.00 0.00 49 1022.6
20211204180348 58 42 5.0 11.0 0.00 0.00 0.00 48 1022.6
20211204180248 58 56 5.0 11.0 0.00 0.00 0.00 49 1022.6
20211204180148 57 101 5.0 11.0 0.00 0.00 0.00 50 1022.6
20211204180048 57 62 5.0 11.0 0.00 0.00 0.00 50 1022.6
20211204180038 57 77 5.0 11.0 0.00 0.00 0.00 49 1022.6
20211204175949 57 68 5.0 11.0 0.00 0.00 0.00 48 1022.6
20211204175847 57 82 4.0 11.0 0.00 0.00 0.00 49 1022.6
20211204175747 57 67 4.0 11.0 0.00 0.00 0.00 48 1022.6
20211204175648 57 77 4.0 11.0 0.00 0.00 0.00 49 1022.6
20211204175547 57 92 4.0 7.0 0.00 0.00 0.00 50 1022.6
20211204175444 57 68 4.0 7.0 0.00 0.00 0.00 50 1022.6
20211204175345 57 94 4.0 7.0 0.00 0.00 0.00 50 1022.6
20211204175244 57 77 4.0 9.0 0.00 0.00 0.00 50 1022.6
20211204175143 57 110 4.0 9.0 0.00 0.00 0.00 50 1022.6
20211204175045 57 95 4.0 9.0 0.00 0.00 0.00 50 1022.6
20211204175036 57 88 4.0 9.0 0.00 0.00 0.00 50 1022.6
20211204174945 57 64 4.0 9.0 0.00 0.00 0.00 49 1022.6
20211204174844 57 93 4.0 9.0 0.00 0.00 0.00 50 1022.6
20211204174744 57 67 3.0 9.0 0.00 0.00 0.00 52 1022.6
20211204174645 57 56 3.0 9.0 0.00 0.00 0.00 51 1022.6
20211204174545 57 75 3.0 9.0 0.00 0.00 0.00 52 1022.6
20211204174440 57 78 3.0 9.0 0.00 0.00 0.00 50 1022.5
20211204174338 57 87 4.0 9.0 0.00 0.00 0.00 51 1022.6
20211204174239 57 71 4.0 7.0 0.00 0.00 0.00 51 1022.5
20211204174137 57 61 4.0 7.0 0.00 0.00 0.00 51 1022.5
20211204174041 56 77 4.0 7.0 0.00 0.00 0.00 52 1022.5
20211204174037 56 54 4.0 7.0 0.00 0.00 0.00 52 1022.5
20211204173930 56 64 4.0 8.0 0.00 0.00 0.00 51 1022.5
20211204173830 56 42 4.0 8.0 0.00 0.00 0.00 51 1022.6
20211204173731 56 99 4.0 8.0 0.00 0.00 0.00 51 1022.6
20211204173628 56 92 4.0 8.0 0.00 0.00 0.00 52 1022.6
20211204173529 56 106 4.0 8.0 0.00 0.00 0.00 52 1022.7
20211204173423 56 49 4.0 8.0 0.00 0.00 0.00 51 1022.6
20211204173321 56 47 4.0 8.0 0.00 0.00 0.00 51 1022.7
20211204173221 56 65 3.0 8.0 0.00 0.00 0.00 52 1022.6
20211204173124 56 87 3.0 8.0 0.00 0.00 0.00 50 1022.7
20211204173038 56 73 3.0 8.0 0.00 0.00 0.00 52 1022.6
20211204173023 56 73 3.0 7.0 0.00 0.00 0.00 52 1022.6
20211204172928 56 92 3.0 8.0 0.00 0.00 0.00 53 1022.6
20211204172817 56 32 3.0 8.0 0.00 0.00 0.00 53 1022.7
20211204172719 56 32 3.0 8.0 0.00 0.00 0.00 51 1022.7
20211204172619 56 42 3.0 8.0 0.00 0.00 0.00 53 1022.7
20211204172517 56 69 3.0 8.0 0.00 0.00 0.00 53 1022.7
20211204172417 56 70 3.0 8.0 0.00 0.00 0.00 55 1022.7
20211204172317 55 96 4.0 8.0 0.00 0.00 0.00 52 1022.7
20211204172218 55 87 4.0 8.0 0.00 0.00 0.00 53 1022.7
20211204172117 55 70 4.0 8.0 0.00 0.00 0.00 54 1022.7
20211204172037 55 72 4.0 8.0 0.00 0.00 0.00 54 1022.7
20211204172018 55 78 4.0 8.0 0.00 0.00 0.00 52 1022.7
20211204171917 55 69 4.0 7.0 0.00 0.00 0.00 54 1022.8
20211204171818 55 92 4.0 7.0 0.00 0.00 0.00 54 1022.8
20211204171719 55 79 4.0 7.0 0.00 0.00 0.00 53 1022.9
20211204171617 55 55 4.0 7.0 0.00 0.00 0.00 54 1022.8
20211204171520 55 91 4.0 7.0 0.00 0.00 0.00 54 1022.9
20211204171425 55 93 4.0 7.0 0.00 0.00 0.00 53 1022.9
20211204171318 55 75 4.0 7.0 0.00 0.00 0.00 53 1022.9
20211204171212 55 65 4.0 7.0 0.00 0.00 0.00 54 1022.9
20211204171109 55 76 4.0 7.0 0.00 0.00 0.00 54 1023.0
20211204171036 55 56 4.0 7.0 0.00 0.00 0.00 54 1023.0
20211204171010 55 89 4.0 7.0 0.00 0.00 0.00 55 1022.9
20211204170908 55 77 4.0 7.0 0.00 0.00 0.00 54 1023.0
20211204170810 55 90 4.0 7.0 0.00 0.00 0.00 54 1023.0
20211204170705 55 32 4.0 7.0 0.00 0.00 0.00 54 1023.0
20211204170602 54 88 4.0 8.0 0.00 0.00 0.00 54 1023.0
20211204170504 55 79 4.0 8.0 0.00 0.00 0.00 54 1023.0
20211204170403 55 112 4.0 8.0 0.00 0.00 0.00 55 1023.0
20211204170302 54 95 4.0 8.0 0.00 0.00 0.00 55 1023.0
20211204170159 54 104 4.0 8.0 0.00 0.00 0.00 55 1023.0
20211204170056 54 81 4.0 9.0 0.00 0.00 0.00 54 1023.1
20211204170038 54 73 4.0 9.0 0.00 0.00 0.00 55 1023.1
20211204165956 54 106 4.0 9.0 0.00 0.00 0.00 55 1023.0
20211204165856 55 108 4.0 9.0 0.00 0.00 0.00 54 1023.1
20211204165756 55 83 5.0 9.0 0.00 0.00 0.00 54 1023.1
20211204165656 55 80 5.0 9.0 0.00 0.00 0.00 54 1023.1
20211204165556 55 57 5.0 9.0 0.00 0.00 0.00 55 1023.2
20211204165455 55 83 5.0 9.0 0.00 0.00 0.00 53 1023.1
20211204165356 55 94 5.0 9.0 0.00 0.00 0.00 54 1023.1
20211204165256 55 88 5.0 9.0 0.00 0.00 0.00 55 1023.2
20211204165155 55 46 4.0 9.0 0.00 0.00 0.00 55 1023.2
20211204165057 55 92 4.0 9.0 0.00 0.00 0.00 55 1023.2
20211204165037 55 78 4.0 9.0 0.00 0.00 0.00 54 1023.2
20211204164955 55 47 5.0 9.0 0.00 0.00 0.00 54 1023.2
20211204164857 55 54 5.0 9.0 0.00 0.00 0.00 55 1023.2
20211204164756 55 79 4.0 9.0 0.00 0.00 0.00 54 1023.2
20211204164658 55 92 4.0 9.0 0.00 0.00 0.00 55 1023.2
20211204164557 55 68 4.0 9.0 0.00 0.00 0.00 55 1023.2
20211204164453 55 90 4.0 9.0 0.00 0.00 0.00 56 1023.2
20211204164351 54 85 4.0 9.0 0.00 0.00 0.00 57 1023.2
20211204164248 54 42 4.0 9.0 0.00 0.00 0.00 55 1023.3
20211204164148 54 52 4.0 9.0 0.00 0.00 0.00 55 1023.2
20211204164037 54 37 4.0 9.0 0.00 0.00 0.00 55 1023.3
20211204163948 54 84 4.0 9.0 0.00 0.00 0.00 56 1023.2
20211204163849 54 65 4.0 7.0 0.00 0.00 0.00 56 1023.2
20211204163749 54 75 4.0 7.0 0.00 0.00 0.00 56 1023.2
20211204163649 54 90 4.0 9.0 0.00 0.00 0.00 56 1023.2
20211204163546 54 100 4.0 9.0 0.00 0.00 0.00 56 1023.2
20211204163448 54 86 4.0 9.0 0.00 0.00 0.00 56 1023.2
20211204163344 54 86 5.0 10.0 0.00 0.00 0.00 57 1023.2
20211204163244 54 90 5.0 10.0 0.00 0.00 0.00 58 1023.1
20211204163144 53 79 5.0 10.0 0.00 0.00 0.00 57 1023.1
20211204163045 53 53 5.0 10.0 0.00 0.00 0.00 56 1023.2
20211204163038 53 76 5.0 10.0 0.00 0.00 0.00 56 1023.2
20211204162946 53 102 5.0 10.0 0.00 0.00 0.00 57 1023.1
20211204162844 53 53 5.0 10.0 0.00 0.00 0.00 57 1023.1
20211204162744 53 83 5.0 10.0 0.00 0.00 0.00 57 1023.1
20211204162645 53 95 5.0 10.0 0.00 0.00 0.00 57 1023.1
20211204162545 53 84 4.0 10.0 0.00 0.00 0.00 57 1023.2
20211204162446 53 48 4.0 10.0 0.00 0.00 0.00 57 1023.2
20211204162345 53 73 3.0 8.0 0.00 0.00 0.00 57 1023.2
20211204162237 53 92 4.0 8.0 0.00 0.00 0.00 57 1023.2
20211204162137 53 94 4.0 8.0 0.00 0.00 0.00 56 1023.2
20211204162037 53 125 3.0 7.0 0.00 0.00 0.00 58 1023.3
20211204161935 53 85 3.0 6.0 0.00 0.00 0.00 60 1023.2
20211204161837 53 42 3.0 6.0 0.00 0.00 0.00 60 1023.2
20211204161731 53 86 3.0 6.0 0.00 0.00 0.00 60 1023.2
20211204161630 53 83 3.0 6.0 0.00 0.00 0.00 59 1023.2
20211204161530 53 88 3.0 6.0 0.00 0.00 0.00 60 1023.2
20211204161434 53 81 3.0 6.0 0.00 0.00 0.00 59 1023.2
20211204161330 53 77 4.0 6.0 0.00 0.00 0.00 60 1023.2
20211204161224 52 81 3.0 6.0 0.00 0.00 0.00 60 1023.2
20211204161122 52 52 3.0 6.0 0.00 0.00 0.00 60 1023.2
20211204161022 52 42 4.0 7.0 0.00 0.00 0.00 60 1023.2
20211204160922 52 73 3.0 7.0 0.00 0.00 0.00 59 1023.3
20211204160823 52 73 3.0 8.0 0.00 0.00 0.00 61 1023.3
20211204160719 52 93 3.0 8.0 0.00 0.00 0.00 61 1023.3
20211204160621 52 109 4.0 9.0 0.00 0.00 0.00 61 1023.3
20211204160521 52 92 4.0 9.0 0.00 0.00 0.00 61 1023.3
20211204160420 52 50 4.0 9.0 0.00 0.00 0.00 62 1023.4
20211204160321 51 76 4.0 9.0 0.00 0.00 0.00 61 1023.4
20211204160217 51 91 4.0 9.0 0.00 0.00 0.00 61 1023.4
20211204160118 51 81 4.0 9.0 0.00 0.00 0.00 63 1023.4
20211204160033 51 79 5.0 9.0 0.00 0.00 0.00 63 1023.4
20211204160019 51 107 5.0 9.0 0.00 0.00 0.00 63 1023.4
20211204155921 51 63 5.0 9.0 0.00 0.00 0.00 62 1023.4
20211204155817 51 71 5.0 9.0 0.00 0.00 0.00 63 1023.4
20211204155716 51 75 5.0 9.0 0.00 0.00 0.00 62 1023.4
20211204155615 51 69 5.0 9.0 0.00 0.00 0.00 62 1023.4
20211204155515 51 62 5.0 9.0 0.00 0.00 0.00 63 1023.4
20211204155416 51 98 5.0 9.0 0.00 0.00 0.00 63 1023.4
20211204155315 51 101 5.0 9.0 0.00 0.00 0.00 63 1023.4
20211204155217 50 95 5.0 9.0 0.00 0.00 0.00 64 1023.4
20211204155117 50 58 5.0 9.0 0.00 0.00 0.00 64 1023.4
20211204155032 50 85 5.0 10.0 0.00 0.00 0.00 64 1023.4
20211204155016 50 66 5.0 10.0 0.00 0.00 0.00 64 1023.4
20211204154913 50 88 5.0 10.0 0.00 0.00 0.00 64 1023.4
20211204154813 50 89 4.0 10.0 0.00 0.00 0.00 64 1023.4
20211204154712 50 61 4.0 10.0 0.00 0.00 0.00 63 1023.4
20211204154612 50 76 4.0 10.0 0.00 0.00 0.00 64 1023.4
20211204154512 50 61 4.0 10.0 0.00 0.00 0.00 64 1023.4
20211204154413 50 67 4.0 10.0 0.00 0.00 0.00 65 1023.4
20211204154313 50 91 5.0 10.0 0.00 0.00 0.00 65 1023.4
20211204154212 50 37 4.0 10.0 0.00 0.00 0.00 65 1023.5
20211204154111 50 86 4.0 10.0 0.00 0.00 0.00 65 1023.4
20211204154033 50 81 4.0 8.0 0.00 0.00 0.00 65 1023.4
20211204154012 50 76 4.0 8.0 0.00 0.00 0.00 66 1023.4
20211204153912 49 95 4.0 10.0 0.00 0.00 0.00 66 1023.4
20211204153811 49 73 5.0 10.0 0.00 0.00 0.00 66 1023.4
20211204153711 49 95 5.0 10.0 0.00 0.00 0.00 66 1023.4
20211204153613 49 96 5.0 10.0 0.00 0.00 0.00 66 1023.4
20211204153513 49 61 5.0 10.0 0.00 0.00 0.00 65 1023.4
20211204153413 49 90 5.0 10.0 0.00 0.00 0.00 66 1023.4
20211204153307 49 90 4.0 10.0 0.00 0.00 0.00 66 1023.4
20211204153205 49 92 4.0 10.0 0.00 0.00 0.00 68 1023.4
20211204153107 49 84 4.0 10.0 0.00 0.00 0.00 68 1023.4
20211204153034 49 63 4.0 10.0 0.00 0.00 0.00 68 1023.4
20211204153007 49 22 4.0 10.0 0.00 0.00 0.00 67 1023.4
20211204152906 49 63 4.0 9.0 0.00 0.00 0.00 68 1023.4
20211204152802 49 73 4.0 9.0 0.00 0.00 0.00 67 1023.4
20211204152701 49 95 4.0 9.0 0.00 0.00 0.00 66 1023.3
20211204152600 49 83 4.0 9.0 0.00 0.00 0.00 67 1023.4
20211204152501 49 108 4.0 9.0 0.00 0.00 0.00 68 1023.4
20211204152401 49 92 4.0 9.0 0.00 0.00 0.00 68 1023.4
20211204152254 49 81 4.0 10.0 0.00 0.00 0.00 68 1023.3
20211204152154 49 64 4.0 11.0 0.00 0.00 0.00 69 1023.4
20211204152055 48 69 4.0 11.0 0.00 0.00 0.00 70 1023.4
20211204152033 48 97 4.0 11.0 0.00 0.00 0.00 70 1023.4
20211204151954 48 42 5.0 11.0 0.00 0.00 0.00 70 1023.4
20211204151855 48 42 5.0 11.0 0.00 0.00 0.00 70 1023.4
20211204151749 48 83 5.0 11.0 0.00 0.00 0.00 69 1023.4
20211204151648 48 89 5.0 11.0 0.00 0.00 0.00 70 1023.5
20211204151549 47 87 5.0 11.0 0.00 0.00 0.00 70 1023.4
20211204151449 47 61 5.0 11.0 0.00 0.00 0.00 71 1023.5
20211204151348 47 79 5.0 11.0 0.00 0.00 0.00 71 1023.4
20211204151243 47 75 4.0 10.0 0.00 0.00 0.00 72 1023.4
20211204151142 47 90 4.0 10.0 0.00 0.00 0.00 71 1023.5
20211204151042 47 71 4.0 10.0 0.00 0.00 0.00 72 1023.4
20211204151032 46 77 4.0 10.0 0.00 0.00 0.00 72 1023.4
20211204150943 46 61 4.0 9.0 0.00 0.00 0.00 73 1023.4
20211204150843 46 58 4.0 9.0 0.00 0.00 0.00 73 1023.4
20211204150738 46 88 3.0 9.0 0.00 0.00 0.00 73 1023.4
20211204150638 46 97 4.0 9.0 0.00 0.00 0.00 73 1023.4
20211204150537 46 79 3.0 9.0 0.00 0.00 0.00 74 1023.4
20211204150438 46 75 3.0 9.0 0.00 0.00 0.00 74 1023.4
20211204150338 46 69 3.0 9.0 0.00 0.00 0.00 74 1023.4
20211204150238 46 65 3.0 9.0 0.00 0.00 0.00 74 1023.4
20211204150139 46 59 3.0 9.0 0.00 0.00 0.00 74 1023.4
20211204150039 46 102 3.0 9.0 0.00 0.00 0.00 74 1023.3
20211204150031 46 100 3.0 9.0 0.00 0.00 0.00 74 1023.3
20211204145939 46 42 3.0 9.0 0.00 0.00 0.00 74 1023.4
20211204145838 45 50 3.0 9.0 0.00 0.00 0.00 74 1023.3
20211204145738 45 32 3.0 9.0 0.00 0.00 0.00 74 1023.3
20211204145638 45 21 3.0 7.0 0.00 0.00 0.00 75 1023.3
20211204145538 45 52 3.0 7.0 0.00 0.00 0.00 75 1023.3
20211204145441 45 37 3.0 5.0 0.00 0.00 0.00 75 1023.3
20211204145339 45 42 3.0 5.0 0.00 0.00 0.00 75 1023.4
20211204145237 45 60 4.0 8.0 0.00 0.00 0.00 75 1023.3
20211204145138 45 100 4.0 8.0 0.00 0.00 0.00 75 1023.4
20211204145033 45 76 4.0 8.0 0.00 0.00 0.00 75 1023.3
20211204144932 45 65 4.0 8.0 0.00 0.00 0.00 75 1023.4
20211204144834 45 77 4.0 8.0 0.00 0.00 0.00 75 1023.3
20211204144734 45 42 4.0 9.0 0.00 0.00 0.00 75 1023.3
20211204144633 45 17 4.0 9.0 0.00 0.00 0.00 75 1023.3
20211204144526 45 355 4.0 9.0 0.00 0.00 0.00 75 1023.3
20211204144426 44 63 4.0 9.0 0.00 0.00 0.00 75 1023.3
20211204144327 44 42 4.0 9.0 0.00 0.00 0.00 75 1023.3
20211204144226 44 52 4.0 9.0 0.00 0.00 0.00 76 1023.3
20211204144127 44 86 4.0 9.0 0.00 0.00 0.00 76 1023.3
20211204144025 44 99 5.0 9.0 0.00 0.00 0.00 75 1023.3
20211204143924 44 73 5.0 9.0 0.00 0.00 0.00 75 1023.3
20211204143823 44 68 4.0 9.0 0.00 0.00 0.00 76 1023.3
20211204143725 44 62 4.0 9.0 0.00 0.00 0.00 76 1023.4
20211204143626 44 86 4.0 9.0 0.00 0.00 0.00 76 1023.3
20211204143514 44 82 4.0 9.0 0.00 0.00 0.00 76 1023.3
20211204143412 44 66 4.0 9.0 0.00 0.00 0.00 75 1023.3
20211204143310 44 52 4.0 9.0 0.00 0.00 0.00 76 1023.3
20211204143210 44 68 4.0 9.0 0.00 0.00 0.00 76 1023.3
20211204143111 44 55 4.0 8.0 0.00 0.00 0.00 76 1023.2
20211204143031 44 52 4.0 8.0 0.00 0.00 0.00 76 1023.2
20211204143003 44 56 3.0 8.0 0.00 0.00 0.00 76 1023.3
20211204142904 44 51 3.0 7.0 0.00 0.00 0.00 76 1023.2
20211204142806 44 80 3.0 7.0 0.00 0.00 0.00 76 1023.2
20211204142706 44 75 3.0 7.0 0.00 0.00 0.00 76 1023.3
20211204142605 44 67 4.0 8.0 0.00 0.00 0.00 76 1023.2
20211204142459 44 82 4.0 8.0 0.00 0.00 0.00 76 1023.3
20211204142358 44 63 3.0 8.0 0.00 0.00 0.00 76 1023.2
20211204142259 44 51 3.0 8.0 0.00 0.00 0.00 76 1023.2
20211204142157 44 75 3.0 8.0 0.00 0.00 0.00 77 1023.2
20211204142059 44 81 3.0 8.0 0.00 0.00 0.00 76 1023.2
20211204142028 44 81 3.0 8.0 0.00 0.00 0.00 76 1023.2
20211204141953 44 82 4.0 9.0 0.00 0.00 0.00 76 1023.2